[{"header": {"dx": 0.06612293990616946, "dy": 0.0552356325346848, "nx": 98, "ny": 59, "la1": 35.046912555036876, "la2": 31.78801023549047, "lo1": -121.43107172385933, "lo2": -114.95102361305473, "refTime": "2026041810", "parameterCategory": 1, "parameterNumber": 2}, "data": [7.95, 8.22, 8.22, 8.22, 7.59, 7.6, 6.33, 5.72, 5.1, 4.1, 2.84, 1.84, 0.0, 0.0, 0.0, 0.0, -0.99, -2.21, -2.86, -2.86, -2.8, -2.12, -1.34, -0.45, 0.0, 0.45, 0.45, 0.89, 1.26, 1.9, 1.58, 1.26, 1.2, 0.89, 1.2, 1.26, 1.26, 1.26, 0.63, 0.45, 0.89, 2.24, 3.13, 3.47, 6.4, 8.24, 9.9, 9.92, 9.27, 5.09, 1.34, 1.2, 2.21, 2.53, 2.07, 2.79, 3.79, 4.46, 4.84, 4.8, 2.6, 1.2, -0.0, 0.6, 1.24, 2.23, 3.2, 4.15, 5.16, 6.28, 6.98, 6.51, 5.31, 3.58, 3.13, 4.02, 3.97, 5.77, 5.81, 3.13, 0.89, -0.0, -0.6, -0.95, -0.45, 0.45, 1.79, 2.17, 2.4, 2.53, 1.27, 0.0, 0.0, 0.0, 0.0, 0.7, 1.35, 1.35, 8.22, 8.22, 8.22, 7.96, 7.85, 7.33, 6.97, 6.34, 5.34, 4.73, 3.47, 1.4, 0.57, 0.0, 0.0, 0.89, 0.0, -1.49, -2.86, -3.14, -2.86, -2.6, -1.6, 0.45, 0.0, 0.45, 0.45, 0.89, 0.6, -0.0, -0.0, 0.45, 0.45, 0.0, 0.45, 1.79, 2.6, 2.4, 1.86, 1.2, 1.7, 2.6, 4.57, 6.7, 8.3, 9.23, 9.85, 9.23, 5.09, 1.6, 1.2, 2.15, 2.84, 2.79, 2.79, 3.07, 4.11, 4.81, 5.43, 5.43, 5.34, 3.74, 1.58, 1.49, 1.49, 2.21, 2.86, 3.74, 4.66, 5.34, 6.28, 6.07, 4.85, 4.02, 2.68, 3.13, 4.41, 5.77, 5.81, 3.13, 0.89, -0.0, -0.6, -0.95, -0.45, 0.45, 1.79, 2.17, 2.4, 2.53, 1.27, 0.0, 0.0, 0.0, 0.0, 0.7, 1.35, 1.35, 7.83, 7.83, 7.96, 7.96, 8.23, 7.59, 6.96, 6.33, 5.72, 5.1, 3.84, 3.22, 1.61, 1.26, 1.2, 0.89, 0.63, 0.0, -1.61, -2.15, -2.51, -2.84, -2.21, -1.58, 0.0, 0.45, 0.63, 0.63, -0.0, -0.6, -1.34, -1.7, -1.7, -0.45, 0.45, 1.79, 2.68, 3.53, 3.32, 2.91, 3.07, 4.75, 7.68, 8.6, 9.23, 9.23, 8.3, 4.73, 2.6, 1.84, 2.53, 2.84, 3.16, 3.16, 2.79, 3.35, 4.46, 5.09, 5.82, 6.0, 6.28, 4.4, 3.16, 2.3, 2.3, 3.16, 3.84, 4.46, 4.46, 5.05, 6.0, 6.28, 5.64, 4.02, 2.68, 2.68, 4.02, 7.11, 6.71, 4.02, 2.17, 0.89, -0.0, -0.45, -0.89, 0.0, 1.34, 2.17, 2.5, 2.79, 2.11, 0.7, 0.0, 0.0, 0.0, 0.0, 0.63, 1.23, 7.57, 7.57, 7.57, 7.96, 7.85, 7.59, 7.6, 6.97, 6.34, 5.72, 4.46, 3.85, 2.15, 1.61, 1.26, 1.2, 1.6, 1.26, 0.0, -1.88, -2.53, -2.86, -2.84, -2.53, -1.9, -0.89, -0.0, -0.0, -0.0, -0.63, -2.12, -2.86, -2.5, -1.6, 0.0, 1.6, 3.04, 3.51, 4.93, 5.09, 6.06, 7.59, 7.9, 7.64, 7.06, 6.64, 5.31, 3.53, 3.83, 4.46, 4.09, 3.84, 3.84, 3.48, 3.79, 4.11, 4.46, 5.43, 6.0, 6.0, 6.28, 4.8, 3.07, 2.98, 3.22, 4.01, 4.81, 4.75, 5.06, 5.37, 6.44, 7.03, 6.79, 4.73, 2.68, 2.6, 3.07, 6.22, 7.6, 3.97, 2.4, 1.2, 0.45, 0.45, -0.89, 0.0, 1.34, 2.4, 3.14, 4.36, 3.0, 0.76, 0.0, 0.0, 0.0, 0.0, 0.0, 0.57, 7.57, 7.57, 7.57, 7.57, 7.59, 7.59, 7.33, 6.96, 6.33, 5.72, 5.09, 4.47, 1.84, 1.4, 1.9, 1.58, 1.86, 1.86, 0.71, -1.16, -2.86, -2.86, -3.2, -3.2, -3.32, -2.6, -1.34, 0.45, 0.45, -0.0, -0.63, -2.53, -3.43, -2.07, 0.0, 1.6, 2.84, 5.24, 6.01, 6.53, 6.88, 6.68, 5.82, 4.93, 5.31, 5.81, 5.77, 5.44, 5.34, 4.8, 4.4, 4.09, 3.84, 3.48, 4.46, 5.09, 5.05, 5.05, 6.4, 6.94, 6.28, 3.83, 2.53, 2.88, 3.9, 4.65, 4.74, 4.43, 4.36, 5.69, 6.7, 7.6, 7.2, 6.4, 4.24, 3.13, 2.91, 4.24, 6.66, 3.97, 0.95, 0.0, 0.0, -0.63, -1.2, 0.0, 1.9, 3.14, 4.74, 4.56, 2.88, 1.41, 0.66, 0.0, -0.59, -0.59, 0.0, 0.59, 7.57, 7.57, 7.57, 7.57, 7.59, 7.59, 7.33, 6.96, 6.97, 6.34, 5.72, 4.46, 2.07, 1.88, 1.9, 1.61, 1.49, 1.9, 1.88, -0.59, -2.79, -3.78, -3.45, -3.51, -3.51, -3.2, -2.6, -1.58, 0.0, 0.45, 0.0, -0.6, -1.33, -1.52, 0.0, 1.32, 2.2, 4.56, 6.95, 5.38, 3.69, 3.49, 3.45, 5.16, 6.66, 6.71, 6.51, 5.75, 5.34, 4.0, 3.74, 3.45, 3.49, 3.49, 3.84, 5.05, 5.34, 4.8, 6.0, 7.47, 6.28, 3.22, 2.2, 2.88, 3.64, 4.65, 5.43, 4.81, 3.79, 4.81, 6.4, 6.79, 6.94, 7.47, 7.28, 6.21, 4.02, 3.32, 3.58, 3.13, 0.0, 0.0, 0.0, 0.0, -0.65, 0.0, 1.35, 3.79, 4.83, 2.8, 1.35, 1.41, 0.66, -0.61, -1.88, -1.2, 0.0, 0.59, 7.57, 7.57, 7.57, 7.32, 7.59, 7.59, 7.33, 6.96, 6.7, 6.08, 5.72, 4.71, 3.07, 1.88, 2.23, 1.24, 1.49, 2.41, 2.79, 1.13, -1.16, -3.49, -4.46, -4.81, -3.22, -2.84, -2.41, -1.33, -0.87, -1.24, -0.45, 0.0, 0.0, 0.0, 0.0, 0.0, 0.79, 4.22, 5.37, 3.07, 1.49, 0.71, 1.74, 4.98, 4.82, 3.45, 4.74, 6.07, 5.82, 6.36, 5.7, 3.32, 3.83, 3.49, 3.83, 4.4, 4.4, 4.4, 5.34, 6.79, 5.86, 3.22, 2.15, 2.07, 2.3, 3.72, 5.46, 4.84, 3.74, 4.66, 5.77, 5.31, 5.77, 7.11, 7.6, 7.6, 6.26, 3.53, 3.39, 4.73, 2.24, 0.61, 0.59, 0.0, 0.0, 1.32, 3.15, 3.6, 3.2, 2.0, 1.23, 1.35, 0.0, -1.86, -2.17, -0.57, 0.65, 1.16, 7.57, 7.32, 7.32, 7.59, 7.59, 7.59, 7.33, 7.22, 6.96, 6.33, 5.7, 4.69, 2.98, 2.15, 3.48, 1.9, 1.9, 3.16, 3.48, 3.45, 2.68, 2.24, 0.0, -2.79, -3.9, -2.99, -1.98, -2.8, -3.22, -2.53, -1.9, -0.8, 0.0, 0.76, 1.35, 0.69, 0.71, 2.35, 3.93, 2.12, 0.45, 0.45, 0.95, 0.95, 0.8, 0.87, 2.98, 6.07, 6.07, 6.79, 3.07, 3.07, 3.49, 4.09, 4.09, 4.09, 4.46, 5.34, 5.86, 6.07, 5.34, 3.2, 1.24, 0.85, 0.76, 2.15, 5.34, 5.16, 3.13, 3.13, 4.47, 4.92, 5.77, 7.45, 7.45, 6.67, 5.81, 4.93, 5.44, 7.56, 7.6, 3.16, 1.35, 0.64, 1.28, 2.06, 3.27, 3.09, 1.23, 1.13, 1.13, 0.57, 0.0, -1.34, -0.45, 0.0, 1.24, 1.61, 7.57, 7.32, 7.59, 7.59, 7.59, 7.59, 7.33, 7.22, 6.96, 6.58, 5.69, 5.06, 4.46, 3.2, 2.98, 2.15, 2.53, 2.79, 2.53, 2.8, 3.13, 3.51, 3.58, 1.86, -1.27, -1.99, -1.83, -3.91, -5.59, -3.48, -1.66, -0.96, 0.0, 0.96, 1.47, 0.7, 1.05, 0.0, 0.0, -0.0, -0.0, -0.0, 0.45, -0.0, -0.0, 0.54, 1.9, 3.2, 5.05, 4.46, 5.37, 2.84, 3.48, 4.12, 4.84, 5.43, 5.43, 6.0, 6.7, 6.36, 6.07, 3.32, 1.26, 0.57, 0.71, 2.53, 5.34, 5.77, 2.68, 2.24, 2.68, 4.87, 6.98, 7.48, 6.58, 4.87, 4.02, 5.36, 7.56, 8.49, 8.94, 4.3, 2.0, 1.98, 2.06, 2.6, 2.66, 1.35, 0.53, 0.0, 1.0, 0.53, 0.0, 0.45, 0.0, 1.34, 1.86, 1.88, 7.32, 7.32, 7.59, 7.59, 7.59, 7.59, 7.33, 6.94, 6.96, 6.7, 6.33, 6.33, 5.72, 4.66, 3.09, 2.4, 3.27, 2.44, 2.09, 2.12, 0.79, 1.6, 2.86, 2.86, 0.0, -1.4, -2.53, -3.58, -4.74, -1.84, 0.0, 0.0, 0.0, 0.0, 0.0, 0.88, 0.65, 0.0, -0.89, 0.45, 0.0, 0.0, 0.0, -0.0, -0.0, 0.6, 1.2, 2.12, 2.4, 2.53, 2.07, 2.51, 3.48, 4.46, 4.84, 5.82, 6.4, 6.79, 6.98, 6.98, 6.66, 4.24, 3.16, 0.71, 1.4, 2.86, 5.34, 5.86, 3.07, 2.24, 2.6, 5.64, 6.85, 7.01, 6.11, 5.32, 4.24, 5.16, 6.85, 8.38, 8.91, 8.49, 3.07, 1.8, 2.0, 2.0, 2.0, 1.61, 0.63, 0.0, 0.0, 0.65, 0.65, 0.6, 0.63, 1.2, 1.86, 1.88, 7.32, 7.32, 7.59, 7.59, 7.19, 7.59, 7.33, 6.94, 6.96, 6.96, 6.97, 6.97, 6.98, 5.72, 4.26, 3.09, 3.32, 3.42, 2.33, 1.16, 0.0, 0.0, 0.78, 0.59, -0.6, -1.79, -2.12, -2.12, -1.4, -0.88, 0.0, 0.0, -0.6, -0.54, 0.0, 0.0, 0.0, -0.45, -1.2, 0.0, 0.0, 0.0, 0.0, -0.0, -0.0, -0.0, -0.0, 0.57, 1.24, 1.2, 1.2, 2.5, 2.86, 4.4, 4.93, 5.86, 6.79, 7.45, 7.6, 7.15, 5.77, 3.83, 2.41, 1.49, 1.41, 3.79, 5.43, 6.0, 4.66, 2.68, 3.51, 5.44, 5.94, 5.64, 5.2, 5.64, 4.93, 4.46, 5.46, 7.03, 8.06, 8.38, 7.6, 3.07, 1.88, 2.5, 2.68, 2.91, 2.24, 1.34, 0.0, 0.61, 1.33, 1.2, 0.57, 0.6, 0.99, 1.2, 7.32, 7.32, 7.59, 7.19, 7.19, 6.94, 6.94, 6.94, 6.96, 6.96, 6.7, 6.97, 6.97, 6.7, 6.34, 5.71, 5.08, 5.1, 4.69, 3.49, 1.69, 0.0, -1.08, -2.21, -2.68, -3.9, -3.82, -2.5, -2.24, -2.86, -3.2, -2.24, -2.4, -2.6, -1.7, -1.58, -1.86, -2.12, -1.7, -0.89, 0.0, -0.0, -0.0, -0.0, -1.19, -0.7, -0.76, -0.0, 0.6, 0.95, 1.34, 1.79, 2.24, 3.13, 4.41, 5.75, 7.11, 7.6, 7.56, 5.36, 2.8, 2.3, 1.55, -0.0, 0.76, 3.48, 6.07, 6.64, 6.28, 5.31, 4.87, 4.93, 4.93, 3.74, 4.41, 5.64, 5.16, 3.84, 5.72, 6.35, 5.69, 5.86, 6.66, 4.47, 3.07, 2.63, 3.32, 3.82, 3.53, 2.68, 1.58, 1.13, 1.8, 1.61, 1.26, 0.6, 0.57, 0.65, 7.32, 7.32, 7.19, 7.19, 6.94, 6.94, 6.94, 6.94, 7.22, 6.96, 6.96, 6.97, 7.33, 7.61, 7.3, 6.95, 6.79, 6.7, 7.07, 6.79, 6.41, 4.11, 1.49, 0.45, -1.79, -3.58, -5.24, -6.3, -6.51, -7.15, -4.87, -3.58, -3.82, -3.32, -2.6, -2.68, -2.68, -2.24, -2.24, -1.7, -1.24, -0.54, -0.65, -0.65, -0.99, -1.13, -0.85, -0.0, 0.45, 0.8, 0.54, 0.65, 2.07, 2.66, 4.11, 4.11, 4.4, 6.71, 5.75, 1.79, -0.0, 0.73, -0.0, -0.0, 0.6, 2.12, 3.83, 5.82, 5.43, 4.24, 3.13, 3.51, 3.74, 4.24, 5.16, 6.28, 5.86, 5.34, 5.31, 5.09, 3.84, 3.45, 6.13, 6.94, 4.92, 4.41, 4.73, 4.0, 3.82, 3.53, 3.32, 2.53, 2.23, 2.5, 2.4, 1.7, 0.63, 0.71, 6.92, 6.92, 7.19, 7.19, 6.94, 6.94, 6.94, 6.94, 7.22, 6.96, 6.96, 7.61, 7.61, 7.33, 7.61, 7.59, 7.51, 7.72, 7.76, 8.51, 8.72, 8.79, 8.03, 6.71, 3.54, 0.0, -2.24, -4.89, -6.16, -6.26, -5.81, -3.13, -5.81, -2.68, -2.68, -2.24, -2.24, -1.79, -2.12, -2.23, -1.49, -1.49, -0.71, -1.08, -1.08, -1.27, -0.57, -0.0, 0.0, 0.6, 0.76, 1.05, 2.26, 1.98, 0.96, 1.41, 0.87, 4.0, 3.9, -0.0, -1.49, -0.99, -0.0, -0.0, 0.0, 0.6, 1.34, 2.24, 4.34, 2.4, 2.23, 2.24, 2.6, 3.32, 5.43, 6.64, 5.43, 5.2, 4.46, 3.83, 2.21, 3.48, 5.72, 6.9, 5.94, 6.28, 5.86, 3.82, 3.32, 3.53, 4.43, 3.6, 3.45, 3.74, 3.82, 2.63, 1.34, 0.6, 6.92, 6.92, 7.19, 7.19, 6.94, 6.94, 6.94, 6.94, 7.22, 6.96, 7.33, 7.33, 7.61, 7.61, 7.93, 8.22, 7.86, 8.08, 8.18, 8.68, 9.42, 9.7, 10.04, 9.68, 8.42, 6.61, 3.87, 0.89, -1.34, -3.13, -3.98, -4.02, -3.58, -3.58, -3.13, -2.8, -2.4, -1.2, -3.2, -1.24, -1.49, -1.27, -1.4, -0.0, -0.0, -0.0, -0.0, -0.0, -0.0, 0.0, 0.8, 1.74, 1.58, 0.89, 0.45, 0.95, 0.65, 2.73, 2.8, -0.0, -1.2, -0.95, -0.63, 0.0, 0.0, 0.0, 0.98, 1.13, 1.26, 0.95, 1.24, 1.24, 1.7, 2.24, 3.45, 5.09, 4.12, 4.46, 3.83, 3.32, 2.8, 2.86, 4.66, 5.44, 4.0, 5.46, 5.05, 3.45, 2.8, 3.32, 4.24, 5.02, 4.66, 4.52, 4.87, 2.17, 1.26, 1.26, 6.92, 6.92, 6.92, 7.19, 6.94, 6.94, 6.94, 6.94, 7.22, 7.22, 7.33, 7.33, 7.61, 7.61, 7.61, 8.22, 7.9, 8.73, 8.65, 9.35, 9.71, 9.92, 10.6, 10.47, 9.68, 8.87, 8.03, 6.68, 4.92, 3.13, 0.89, -1.34, -2.17, -2.4, -2.53, -1.9, -1.9, -1.9, -2.73, -2.73, -0.71, -0.0, -0.0, -0.0, -0.0, -0.0, -0.0, -0.0, -0.0, -0.0, 1.34, 0.89, 1.6, 0.8, 0.6, 0.89, 1.58, 1.9, 1.79, 0.95, -0.0, 0.89, 1.34, 1.79, 0.45, 0.85, 0.7, 0.0, 0.0, -0.0, -0.0, -0.0, 1.24, 2.4, 2.68, 2.5, 2.53, 2.21, 2.4, 2.63, 3.13, 3.13, 4.02, 5.31, 4.87, 3.32, 3.49, 2.79, 2.5, 2.86, 4.0, 5.05, 4.4, 4.3, 5.64, 3.39, 1.86, 1.86, 6.92, 6.92, 6.92, 7.19, 6.94, 6.94, 6.94, 7.22, 7.22, 7.22, 7.6, 7.6, 7.61, 7.61, 7.61, 8.22, 7.9, 8.45, 8.94, 9.1, 9.48, 10.0, 10.6, 10.47, 10.67, 10.71, 10.27, 9.82, 8.92, 7.97, 6.16, 3.53, 1.34, -0.0, -1.2, -1.84, -3.07, -3.22, -2.23, -2.2, -1.27, -0.0, -0.0, -0.0, -0.0, -0.0, -0.0, -0.0, -0.0, -0.0, -0.0, -0.0, 1.9, 1.9, 2.24, 2.68, 3.58, 2.8, 1.4, 1.2, 1.58, 1.58, 1.58, -0.0, -0.0, 1.34, 0.71, 0.0, 0.0, 0.0, -0.45, -0.89, -0.0, 1.26, 1.7, 0.6, 0.0, 0.6, 1.7, 2.24, 3.13, 4.02, 4.47, 5.36, 5.77, 3.07, 2.5, 2.5, 2.53, 3.49, 5.72, 4.93, 3.35, 4.52, 5.44, 3.6, 2.5, 2.5, 6.92, 6.92, 6.92, 7.19, 6.94, 6.94, 6.94, 6.96, 6.96, 6.96, 7.6, 7.6, 7.33, 7.61, 7.61, 7.9, 8.22, 8.78, 8.73, 9.1, 10.11, 10.21, 10.18, 10.14, 10.73, 11.18, 11.16, 10.67, 9.68, 9.11, 8.17, 6.47, 3.98, 1.86, -0.0, -1.4, -2.84, -3.16, -2.21, -1.0, -0.8, -0.0, -0.0, -0.0, -0.0, -0.0, -0.0, -0.0, -0.0, -0.0, -0.0, -0.0, 1.2, 1.9, 1.58, 2.68, 3.39, 2.53, 2.53, 2.4, 2.8, 3.13, 2.24, -0.0, -1.6, -0.6, 0.45, 0.85, 0.0, 0.0, -1.58, -1.58, -0.6, 0.45, 0.0, -1.49, -1.88, 0.0, 1.26, 1.7, 2.68, 3.53, 4.43, 5.44, 3.82, 2.5, 2.86, 2.4, 2.53, 3.48, 5.05, 5.16, 4.27, 4.37, 5.05, 3.6, 2.86, 2.86, 6.92, 6.92, 6.92, 6.94, 6.94, 6.94, 6.94, 6.96, 6.96, 6.96, 7.33, 7.33, 7.33, 7.61, 7.33, 6.88, 7.3, 8.19, 8.08, 8.96, 10.21, 10.91, 10.0, 8.4, 7.89, 9.77, 8.79, 7.71, 6.79, 7.31, 6.6, 5.57, 3.82, 2.24, 0.57, -1.13, -2.48, -3.43, -1.9, -1.58, -0.57, -0.0, -0.0, -0.0, -0.0, -0.0, -0.0, -0.0, -0.0, -0.0, -0.0, -0.0, -0.0, 1.4, 1.4, 2.53, 3.2, 3.39, 3.39, 3.13, 3.13, 3.13, 2.24, -0.0, -1.49, -1.58, 0.0, 2.53, 2.84, 1.26, 0.0, 0.57, 1.86, 2.6, 1.79, -0.6, -2.07, -1.41, 0.0, 1.2, 2.53, 3.49, 4.12, 4.41, 4.46, 3.72, 3.79, 4.29, 4.74, 3.43, 3.49, 4.93, 5.05, 4.37, 4.09, 4.0, 3.14, 3.14, 6.5, 6.92, 6.92, 6.94, 6.94, 6.94, 6.94, 6.96, 6.96, 6.96, 7.33, 7.33, 7.33, 7.61, 7.33, 7.3, 7.59, 6.97, 6.32, 7.06, 9.27, 10.83, 9.86, 8.32, 7.69, 8.05, 7.6, 7.48, 6.41, 4.29, 3.07, 1.86, 1.6, 1.34, 0.6, -0.0, -0.0, -1.16, -1.61, -1.16, -0.61, -0.0, -0.0, -0.0, -0.0, -0.0, -0.0, -0.0, -0.0, -0.0, -0.0, -0.0, -0.0, 1.4, 0.8, 1.58, 3.72, 1.86, 2.24, 3.58, 3.13, 2.68, 1.79, -0.0, -0.8, -1.2, 0.45, 1.34, 3.13, 3.95, 4.41, 7.56, 10.28, 10.73, 7.71, 3.45, 0.61, -1.41, 0.0, 1.33, 2.07, 2.79, 3.48, 3.48, 2.73, 2.44, 2.0, 2.51, 4.11, 2.48, 2.48, 4.46, 5.46, 3.43, 3.15, 3.48, 3.48, 3.48, 6.5, 6.5, 6.27, 6.94, 6.94, 6.94, 6.94, 6.96, 6.96, 6.96, 6.96, 7.33, 7.33, 7.61, 7.61, 7.61, 7.3, 6.69, 6.35, 6.88, 8.27, 9.59, 9.59, 9.02, 8.78, 8.94, 8.82, 7.48, 5.47, 2.4, 0.63, 0.45, 0.45, 0.89, 1.26, 1.2, 1.16, 0.61, -0.0, -0.0, -0.0, -0.0, -0.0, -0.0, -0.0, -0.0, -0.0, -0.0, -0.0, -0.0, -0.0, -0.0, -0.0, -0.0, 1.4, 1.26, 2.23, 1.9, 3.13, 2.24, 0.0, 0.89, -1.79, -2.4, -1.2, -1.2, -0.63, -0.0, 1.49, 3.35, 5.43, 8.55, 11.06, 11.15, 9.49, 7.35, 1.47, -1.35, -2.29, 0.0, 0.7, 1.84, 2.53, 2.79, 1.9, 1.2, 1.24, 1.58, 3.2, 3.14, 2.98, 4.29, 5.43, 3.79, 2.66, 3.12, 3.15, 3.15, 6.5, 6.27, 6.27, 6.53, 6.53, 6.94, 6.7, 6.96, 6.96, 6.96, 6.96, 7.33, 7.33, 7.61, 7.61, 7.33, 7.32, 7.6, 7.93, 8.85, 9.08, 8.73, 8.38, 8.73, 8.94, 9.48, 9.71, 8.91, 7.07, 4.89, 3.58, 2.68, 2.24, 2.12, 2.4, 2.21, 2.23, 1.6, 1.13, 0.57, -0.0, -0.0, -0.0, -0.0, -0.0, -0.0, -0.0, -0.0, -0.0, -0.0, -0.0, -0.0, -0.0, -0.0, -0.0, 1.4, 1.24, 1.2, -0.0, -1.79, -1.34, -1.79, -1.6, -1.2, -1.34, -0.95, -0.95, -0.63, -0.0, -0.0, 1.98, 4.29, 2.86, 2.6, 3.2, 4.96, 5.59, 2.0, 0.0, -1.33, 0.0, 0.51, 1.2, 1.49, 1.7, 1.7, 1.7, 2.15, 3.72, 5.6, 6.01, 5.64, 5.37, 3.79, 2.23, 1.8, 2.48, 2.48, 6.27, 6.27, 6.27, 6.53, 6.53, 6.29, 6.7, 6.96, 6.96, 6.96, 6.96, 6.96, 7.61, 7.61, 7.61, 7.33, 7.61, 7.93, 8.53, 9.13, 9.37, 8.84, 8.18, 8.27, 8.82, 8.96, 9.51, 9.43, 8.79, 7.97, 6.68, 5.81, 4.47, 3.98, 3.39, 3.6, 3.14, 2.51, 1.8, 1.23, 0.55, 0.55, 0.57, 0.57, 0.59, -0.0, -0.0, -0.0, -0.0, -0.0, -0.0, -0.0, -0.0, -0.0, -0.0, -0.0, -0.0, -0.0, -0.0, -1.34, -1.79, -1.79, -1.34, -0.63, -0.95, -0.8, -0.0, -0.0, 0.0, 0.45, 0.45, -0.45, -0.0, -0.0, 0.0, 2.75, 5.52, 6.01, 2.79, 0.54, -0.61, -0.59, 0.0, 0.0, 0.71, 1.24, 1.88, 2.84, 4.43, 5.72, 6.63, 5.35, 4.11, 2.53, 1.61, 1.84, 2.86, 2.86, 6.27, 6.27, 6.27, 6.53, 6.29, 6.29, 6.7, 6.96, 6.96, 6.96, 6.96, 6.96, 7.24, 7.61, 7.33, 7.33, 7.61, 8.24, 8.53, 9.08, 9.37, 9.21, 8.96, 8.68, 8.68, 8.68, 9.01, 9.21, 9.54, 9.23, 7.97, 7.13, 6.26, 5.36, 4.88, 4.3, 3.88, 3.43, 2.86, 1.76, 1.19, 1.19, 0.55, 0.57, 0.59, -0.0, -0.0, -0.0, -0.0, -0.0, -0.0, -0.0, -0.0, -0.0, -0.0, -0.0, -0.0, -0.0, -0.0, -0.0, -0.45, -1.2, -0.8, -1.2, -1.58, -0.85, -0.0, -0.0, 0.0, 0.0, 0.57, -0.89, -0.0, -0.0, 0.89, 1.05, 3.99, 5.15, 5.59, 2.5, 1.0, -0.59, -1.27, 0.0, 0.0, 0.66, 1.41, 2.88, 3.55, 3.43, 4.43, 2.23, 1.24, 0.95, 1.24, 2.51, 3.43, 3.43, 5.83, 5.83, 5.86, 6.29, 6.29, 6.29, 6.56, 6.96, 6.96, 6.96, 6.96, 7.24, 6.97, 6.97, 7.33, 7.33, 7.61, 8.24, 8.53, 8.82, 9.02, 9.3, 9.21, 9.35, 9.2, 9.2, 9.01, 9.21, 9.39, 9.11, 8.33, 7.51, 6.68, 6.26, 5.36, 4.8, 4.6, 4.27, 3.48, 2.44, 1.73, 1.19, 1.08, 1.11, 0.59, 0.59, -0.0, -0.0, -0.0, -0.0, -0.0, -0.0, -0.0, -0.0, -0.0, -0.0, -0.0, -0.0, 0.45, 0.45, 0.89, 0.0, -0.4, -1.2, -1.24, -0.71, -0.57, -0.6, -0.89, 0.95, 1.26, 0.57, 0.89, 1.34, 0.89, 1.2, 2.21, 3.48, 5.59, 2.86, 2.21, 1.16, 0.0, -0.61, 0.0, 0.0, 1.3, 2.04, 2.2, 1.6, 0.99, 1.7, 1.2, 1.2, 1.9, 2.51, 3.15, 3.15, 5.86, 5.86, 5.86, 6.29, 6.29, 6.29, 6.29, 6.96, 6.96, 6.96, 6.97, 6.97, 6.97, 6.97, 7.33, 7.33, 7.33, 8.24, 8.53, 8.5, 8.78, 9.08, 8.94, 9.48, 9.35, 9.2, 9.2, 8.91, 8.72, 8.48, 8.17, 7.4, 7.06, 6.23, 5.81, 5.34, 5.24, 4.4, 3.78, 2.86, 2.2, 1.73, 1.76, 1.11, 1.13, 0.59, 0.61, -0.0, -0.0, -0.0, -0.0, -0.0, -0.0, -1.0, -1.0, -1.58, -1.58, -0.0, 0.89, 0.0, 0.95, 1.6, 0.95, 0.0, -0.8, -0.8, -0.8, -0.6, -0.63, 0.0, 0.57, 0.71, 1.58, 1.34, 1.34, 1.34, 2.0, 3.14, 3.48, 2.84, 3.35, 2.48, 1.27, 0.0, -0.7, 0.0, 0.63, 1.27, 0.61, 0.0, 0.0, 1.7, 2.63, 2.91, 2.79, 2.53, 3.16, 3.16, 5.86, 5.86, 5.86, 5.86, 6.29, 6.29, 6.56, 6.56, 6.7, 6.7, 6.97, 6.97, 6.97, 6.97, 6.97, 7.33, 7.33, 7.93, 8.24, 8.5, 8.78, 8.45, 8.73, 9.21, 9.48, 9.35, 9.2, 9.01, 8.72, 8.42, 7.74, 6.94, 6.16, 5.78, 5.81, 5.36, 4.89, 4.77, 3.88, 2.86, 2.22, 2.22, 2.22, 1.8, 1.13, 1.16, 0.61, -0.0, -0.0, -0.0, -0.0, -0.0, -0.0, -0.65, -1.26, -1.2, -1.58, -1.58, -0.89, -0.45, 0.0, 1.6, 2.12, 1.34, -0.0, -0.0, -0.6, 0.45, -0.6, 0.0, 0.76, 1.6, 1.2, 1.26, 0.45, 0.32, 1.79, 2.68, 3.48, 3.07, 3.22, 4.02, 2.73, 0.0, -1.11, 0.0, 0.0, 0.0, 0.0, -1.0, -0.51, 0.59, 3.07, 3.45, 3.14, 3.14, 3.14, 3.14, 5.86, 5.86, 5.86, 5.86, 5.86, 6.29, 6.31, 6.31, 6.31, 6.97, 6.97, 6.97, 6.97, 6.97, 6.97, 7.33, 7.61, 7.61, 7.93, 8.5, 8.78, 8.45, 8.73, 9.01, 9.21, 9.1, 9.35, 9.2, 8.91, 8.22, 7.51, 6.94, 6.16, 5.78, 5.36, 5.36, 4.89, 4.34, 3.88, 3.16, 2.86, 2.48, 2.48, 1.8, 1.8, 1.13, 0.61, -0.0, -0.0, -0.0, -0.0, -0.0, -0.0, -0.53, -1.2, -1.2, -2.24, -2.68, -1.79, -1.34, 0.0, 1.2, 2.24, 2.24, 1.6, -0.0, 0.0, 0.0, 0.0, 0.0, 0.57, 2.21, 2.41, 0.54, -1.2, -0.89, 0.0, 1.49, 2.21, 3.07, 2.98, 4.47, 4.47, 2.07, 0.0, -0.59, -1.23, -1.61, -1.24, -0.53, -0.66, 0.0, 2.51, 3.16, 3.16, 3.14, 3.72, 3.72, 5.86, 5.86, 5.64, 5.64, 5.64, 6.31, 6.31, 6.31, 6.31, 6.31, 6.97, 6.97, 6.97, 6.97, 6.97, 7.26, 7.61, 7.61, 7.93, 8.22, 8.5, 8.45, 8.38, 8.38, 8.65, 8.55, 8.55, 8.82, 8.91, 8.22, 7.51, 6.79, 6.04, 5.78, 5.36, 4.92, 4.92, 4.3, 3.6, 2.84, 2.84, 2.23, 1.8, 1.2, 1.2, 1.27, 1.13, 0.51, -0.0, -0.0, -0.0, -0.0, -0.0, -0.0, -0.65, -1.24, -1.79, -2.68, -1.79, -1.79, -0.89, 0.89, 1.79, 1.79, 1.2, 0.0, 0.0, 0.0, 0.0, 0.0, 0.0, 2.86, 5.34, 3.79, 0.0, -1.26, -0.63, 0.0, 1.9, 2.53, 2.79, 3.84, 4.83, 5.06, 2.53, 0.0, -2.07, -2.79, -1.13, 0.0, 0.0, 0.0, 0.63, 2.48, 3.16, 3.16, 3.78, 3.78, 5.64, 5.64, 5.64, 5.64, 5.89, 5.89, 6.31, 6.31, 6.31, 6.31, 6.97, 6.97, 6.97, 6.97, 6.97, 6.98, 7.32, 7.61, 7.61, 7.93, 8.22, 8.19, 8.15, 7.81, 8.08, 8.37, 8.55, 8.43, 8.28, 8.0, 7.31, 7.21, 6.47, 5.7, 5.34, 4.92, 4.47, 3.98, 3.6, 3.14, 2.84, 2.23, 1.84, 1.84, 1.13, 0.54, 0.54, 0.59, -0.0, -0.0, -0.0, -0.0, -0.0, -0.0, -0.0, -0.54, -1.26, -2.12, -1.79, -1.79, -0.89, 0.45, 1.34, 0.89, 0.45, 0.45, -0.63, -0.89, -0.45, 0.0, 0.76, 2.3, 5.34, 7.47, 6.44, 2.53, 0.71, 0.0, 0.0, 1.88, 2.79, 4.21, 4.71, 5.38, 5.01, 2.5, 0.0, -1.27, -0.63, 0.0, -0.67, 0.0, 0.0, 1.41, 2.48, 2.73, 3.15, 3.15, 5.64, 5.64, 5.64, 5.89, 5.89, 5.89, 6.31, 6.31, 6.31, 6.31, 6.58, 6.97, 6.97, 6.71, 6.98, 6.98, 6.98, 7.32, 7.32, 7.61, 7.9, 7.9, 7.86, 7.81, 8.08, 8.0, 8.0, 7.9, 7.76, 8.0, 7.71, 7.01, 6.3, 5.99, 5.34, 4.89, 4.47, 3.98, 3.82, 3.07, 2.79, 2.23, 1.84, 1.16, 0.53, -0.0, 0.57, 0.61, -0.0, -0.0, -0.0, -0.0, -0.0, -0.0, -0.0, -0.65, -0.54, -0.57, -1.26, -1.2, -0.89, 0.45, 0.45, -0.6, 0.0, 0.0, 0.0, -1.58, 0.0, 2.21, 2.29, 0.82, 2.07, 5.59, 8.19, 8.14, 5.46, 1.9, 0.54, 1.4, 2.51, 3.38, 3.83, 4.71, 5.1, 4.68, 3.43, 1.0, 0.0, 0.0, -0.61, -0.61, 0.0, 0.61, 1.94, 2.11, 2.66, 2.66, 5.64, 5.64, 5.64, 5.89, 5.89, 5.89, 5.89, 6.31, 6.31, 6.58, 6.58, 6.97, 6.97, 6.71, 6.98, 6.98, 6.98, 6.98, 7.32, 7.32, 7.6, 7.6, 7.86, 7.81, 7.51, 7.8, 7.44, 7.35, 6.44, 7.08, 7.48, 6.8, 6.51, 5.99, 5.7, 5.33, 4.92, 4.02, 3.53, 3.2, 2.79, 2.21, 1.88, 1.2, 0.65, 0.54, 0.54, -0.0, -0.0, -0.0, -0.0, -0.0, -0.0, -0.0, -0.53, -0.65, -0.54, -0.0, -0.57, -1.26, -1.34, -1.2, -1.2, -1.26, -0.95, 0.0, 0.8, 0.0, 0.0, 2.16, 2.3, 0.0, 0.0, 2.6, 6.21, 7.71, 6.4, 2.5, 1.86, 2.5, 2.53, 2.53, 2.07, 3.45, 4.47, 5.06, 4.94, 3.88, 2.23, 1.0, 0.0, -0.66, -0.63, 0.0, 1.3, 1.3, 2.11, 2.11, 5.64, 5.64, 5.89, 5.89, 5.89, 5.89, 5.89, 5.67, 6.07, 6.33, 6.33, 6.33, 6.71, 6.71, 6.98, 6.98, 6.98, 6.98, 6.7, 6.7, 6.98, 7.3, 7.59, 7.55, 7.51, 7.17, 7.44, 6.87, 6.79, 6.07, 6.56, 6.8, 6.1, 5.81, 5.57, 5.24, 4.88, 4.47, 3.98, 3.39, 2.68, 2.21, 1.88, 1.2, 0.54, -0.0, -0.0, -0.0, -0.0, -0.0, -0.0, -0.0, -0.0, -0.0, -0.53, -0.65, -0.54, -0.0, -0.0, -0.57, -1.7, -1.2, -1.9, -1.2, -0.89, 0.0, 0.89, 1.34, 1.9, 1.49, 0.95, 0.45, 0.57, 1.4, 4.0, 4.24, 2.8, 1.26, 1.7, 3.13, 3.97, 3.53, 2.8, 2.21, 3.83, 4.74, 5.01, 4.84, 3.32, 2.6, 1.86, 0.54, 0.0, -0.61, 0.0, 0.7, 1.35, 1.35, 5.44, 5.44, 5.89, 5.89, 5.67, 5.67, 5.67, 5.67, 5.67, 6.33, 6.33, 6.33, 6.33, 6.71, 6.98, 6.98, 6.98, 6.7, 6.7, 6.98, 6.98, 6.98, 7.59, 7.55, 7.23, 7.17, 6.87, 6.87, 6.87, 7.07, 6.41, 6.28, 6.0, 5.81, 5.57, 5.24, 4.89, 4.47, 4.02, 3.53, 2.91, 2.5, 1.9, 1.24, 0.71, -0.0, -0.0, -0.0, -0.0, -0.0, -0.0, -0.0, -0.0, -0.0, -0.53, -0.0, -0.0, -0.0, -0.0, -0.0, -1.34, 0.89, 0.45, 0.45, 0.0, 0.0, 0.45, 0.45, 1.34, 1.2, 0.89, 0.89, 1.26, 3.22, 4.43, 3.07, 2.12, 1.7, 2.8, 4.43, 5.36, 4.47, 3.53, 3.32, 3.45, 4.65, 4.94, 5.37, 3.6, 3.32, 2.4, 2.12, 1.2, 0.0, -0.69, 0.61, 0.55, 0.55, 5.44, 5.44, 5.67, 5.67, 5.67, 5.67, 5.67, 5.67, 5.92, 6.33, 6.33, 6.33, 6.33, 6.33, 6.33, 6.98, 6.98, 6.7, 6.7, 6.98, 6.98, 6.98, 6.97, 6.97, 6.95, 6.92, 6.87, 6.87, 6.79, 6.79, 6.51, 6.03, 5.75, 5.6, 5.31, 5.09, 4.8, 4.44, 4.02, 3.09, 2.91, 2.4, 1.58, 1.24, -0.0, -0.0, -0.0, -0.0, -0.0, -0.0, -0.0, -0.0, -0.53, -0.53, -0.0, -0.0, -0.0, -0.0, -0.0, -0.0, -0.0, -0.0, 1.34, 1.34, 1.79, 1.79, 0.45, 0.45, 0.0, 0.63, 0.63, 0.0, 3.16, 5.72, 6.06, 4.4, 3.58, 4.46, 5.69, 6.28, 5.81, 5.32, 3.82, 3.82, 3.6, 4.9, 5.08, 4.0, 3.6, 3.32, 2.68, 2.4, 1.86, 0.53, 0.0, -0.67, 0.0, 0.0, 5.23, 5.23, 5.67, 5.67, 5.67, 5.67, 5.67, 5.67, 5.92, 5.92, 6.33, 6.33, 6.33, 6.33, 6.33, 6.61, 6.34, 6.34, 6.34, 6.35, 6.35, 6.35, 6.69, 6.97, 6.95, 6.92, 6.87, 6.28, 6.57, 6.23, 6.51, 6.15, 5.49, 5.6, 5.31, 5.09, 4.8, 4.44, 4.02, 3.13, 2.63, 2.0, 1.58, 0.8, -0.0, -0.0, -0.0, -0.0, -0.0, -0.0, -0.0, -0.65, -0.65, -0.65, -0.0, -0.0, -0.0, -0.0, -0.0, -0.0, -0.0, -0.0, -0.0, 0.45, 0.89, 1.79, 0.0, 0.45, 0.45, 0.45, 0.0, 0.0, 1.98, 6.0, 7.71, 6.07, 5.36, 6.28, 6.79, 6.22, 5.81, 3.53, 2.91, 2.91, 2.91, 3.32, 3.74, 3.6, 3.6, 3.6, 3.07, 2.15, 1.49, 1.7, 0.54, -0.63, -0.62, -0.62, 5.23, 5.23, 5.23, 5.67, 5.67, 5.67, 5.67, 5.92, 5.92, 5.92, 6.33, 6.33, 6.33, 6.33, 6.33, 6.61, 6.34, 6.34, 6.08, 6.35, 6.35, 6.35, 6.35, 6.67, 6.95, 6.92, 6.62, 6.28, 6.23, 6.23, 6.23, 5.93, 5.86, 5.37, 5.08, 4.9, 4.6, 4.34, 3.98, 3.13, 2.6, 2.12, 1.26, 0.63, -0.0, -0.0, -0.0, -0.0, -0.0, -0.0, -0.71, -0.54, -0.65, -0.54, -0.0, -0.0, -0.0, -0.57, -0.0, -0.0, -0.0, -0.0, 1.34, 0.0, 0.45, 1.79, 0.0, 0.45, 0.45, 0.0, 0.0, 0.0, 0.6, 4.47, 8.01, 7.89, 6.28, 6.51, 6.79, 5.67, 4.73, 3.07, 3.07, 2.91, 2.91, 3.32, 3.82, 3.82, 4.0, 3.45, 2.86, 1.9, 0.6, 0.89, 0.89, 0.0, -0.59, -1.32, 5.23, 5.23, 5.23, 5.67, 5.67, 5.67, 5.92, 5.92, 5.92, 5.92, 5.92, 6.33, 6.33, 6.33, 6.33, 6.33, 6.34, 6.34, 6.08, 6.35, 6.35, 6.35, 6.35, 6.35, 6.65, 6.34, 6.32, 6.28, 5.98, 5.98, 5.65, 5.65, 5.59, 5.29, 5.08, 4.9, 4.6, 4.34, 3.98, 3.13, 2.68, 1.79, 1.2, 0.45, -0.0, -0.0, -0.6, -0.0, -0.0, -0.8, -0.57, -0.71, -0.71, -0.71, -0.0, -0.0, -0.8, -0.8, -0.57, -0.0, -0.0, -0.0, -0.0, 0.0, 0.45, 1.79, 0.89, 0.0, 0.45, 0.0, 0.0, 0.0, 0.0, 2.23, 7.11, 7.45, 6.0, 6.7, 7.59, 6.9, 4.52, 3.07, 3.07, 3.07, 2.63, 3.07, 3.97, 4.41, 3.82, 3.32, 2.4, 0.8, 0.4, 0.45, 0.63, 0.8, 0.0, -0.59, 5.23, 5.23, 5.23, 5.23, 5.67, 5.67, 5.92, 5.69, 5.69, 5.69, 5.69, 5.69, 6.08, 6.33, 6.33, 6.34, 6.34, 6.34, 5.7, 5.98, 5.98, 5.72, 6.08, 6.35, 6.06, 6.34, 6.32, 6.01, 5.98, 5.65, 5.65, 5.65, 5.59, 5.29, 5.21, 4.55, 4.4, 4.11, 3.39, 3.07, 2.24, 1.79, 0.89, 0.45, 0.0, -0.0, -0.0, -0.0, -0.0, -0.6, -0.8, -0.57, -0.57, -0.8, -0.8, -0.6, -0.6, -0.8, -0.8, -0.57, -0.0, -0.0, -0.0, 1.34, 1.34, 1.79, 0.0, 0.0, -0.45, 0.45, 0.45, 0.0, 0.0, 0.85, 3.9, 5.36, 4.47, 5.43, 7.06, 6.9, 5.02, 3.53, 4.47, 4.02, 3.58, 3.58, 4.47, 4.47, 4.02, 3.51, 1.7, 0.63, 0.63, 0.89, 1.34, 0.8, 0.45, 0.0, 5.23, 5.23, 5.23, 5.23, 5.23, 5.92, 5.69, 5.69, 5.69, 5.69, 5.69, 5.69, 5.69, 6.08, 6.08, 6.34, 6.34, 6.34, 5.7, 5.98, 5.72, 5.72, 5.72, 6.0, 6.06, 6.04, 5.71, 5.69, 5.69, 5.65, 5.65, 5.65, 5.06, 5.01, 5.21, 4.55, 4.4, 4.11, 3.39, 3.07, 2.24, 1.79, 0.89, 0.45, 0.45, -0.0, -0.6, -0.0, -0.63, -0.95, -0.8, -0.8, -0.6, -0.6, -0.6, -0.6, -0.6, -0.8, -0.8, -0.57, -0.57, -0.57, -0.0, -0.0, -0.0, 1.34, 0.45, 1.34, -0.63, -0.45, 0.0, 0.6, 0.0, 0.0, 0.8, 2.12, 1.86, 2.24, 3.32, 4.8, 3.39, 3.58, 4.47, 5.78, 5.77, 5.32, 5.36, 5.36, 5.36, 3.58, 2.24, 1.2, 1.2, 1.34, 1.34, 1.34, 1.34, 1.34, 5.23, 5.23, 5.23, 5.23, 5.23, 5.26, 5.69, 5.69, 5.69, 5.69, 5.69, 5.69, 5.69, 5.69, 6.08, 6.34, 5.95, 5.7, 5.7, 5.72, 5.72, 5.72, 5.72, 6.0, 5.72, 5.72, 5.71, 5.69, 5.69, 5.08, 5.08, 5.37, 5.06, 5.01, 4.71, 4.65, 4.0, 3.88, 3.2, 2.91, 2.17, 1.7, 1.2, 0.89, 0.0, -0.63, -0.63, -0.63, -0.89, -0.63, -0.95, -0.95, -0.95, -0.95, -0.95, -0.95, -0.6, -0.8, -0.8, -0.57, -0.71, -0.71, -0.57, -0.0, -0.0, -0.0, -0.0, -0.0, -0.6, -0.89, 0.0, 0.0, 0.0, 0.0, 0.0, 0.0, 0.95, 1.7, 2.24, 2.68, 2.68, 3.53, 6.11, 7.48, 7.57, 7.15, 6.26, 6.26, 5.77, 4.43, 3.07, 1.86, 1.26, 1.2, 1.34, 1.2, 1.2, 1.2, 5.23, 5.23, 5.23, 5.23, 5.02, 5.26, 5.26, 5.26, 5.69, 5.69, 5.69, 5.69, 5.69, 5.69, 5.69, 5.95, 5.95, 5.7, 5.7, 5.72, 5.32, 5.72, 5.72, 5.72, 5.72, 5.72, 5.71, 5.41, 5.38, 5.08, 5.08, 5.08, 5.06, 5.01, 4.71, 4.65, 4.37, 3.72, 3.07, 2.8, 1.86, 1.6, 1.2, 0.63, 0.45, -0.89, -0.89, -0.45, -0.89, -0.89, -0.89, -0.89, -0.63, -0.63, -0.95, -0.95, -0.95, -0.6, -0.8, -0.57, -0.71, -0.71, -0.71, -0.0, -0.0, -0.0, -0.0, -0.0, -0.6, -0.89, 0.45, 0.0, 0.0, 0.0, 0.0, 0.6, 1.79, 2.68, 3.51, 3.82, 5.43, 6.9, 8.25, 8.67, 8.46, 8.05, 7.12, 6.66, 6.07, 5.16, 3.32, 2.4, 1.58, 0.95, 1.2, 1.2, 1.2, 1.2, 5.23, 5.23, 5.02, 5.02, 5.26, 5.26, 5.26, 5.26, 5.26, 5.69, 5.69, 5.69, 5.69, 5.69, 5.69, 5.69, 5.95, 5.7, 5.7, 5.32, 5.32, 5.32, 5.08, 5.72, 5.72, 5.72, 5.44, 5.1, 5.38, 5.08, 5.08, 5.08, 5.06, 4.74, 4.71, 4.11, 4.07, 3.43, 2.79, 2.5, 1.86, 1.26, 0.95, 0.95, 0.45, 0.45, -0.45, -0.45, -0.89, -0.89, -0.89, -0.89, -0.89, -0.89, -0.89, -1.34, -0.95, -0.95, -0.8, -0.8, -0.71, -1.24, -1.24, -1.24, -1.26, -0.0, -0.0, -0.95, -0.6, -0.45, 0.0, 0.8, 0.76, 0.76, 0.57, 0.89, 1.79, 3.13, 5.81, 6.94, 8.03, 9.82, 10.94, 9.89, 8.47, 8.05, 7.57, 6.55, 5.44, 3.82, 5.81, 1.24, 0.57, 0.6, 0.6, 0.63, 0.63, 0.63, 5.02, 5.02, 5.02, 5.26, 5.26, 5.26, 5.26, 5.26, 5.26, 5.69, 5.69, 5.69, 5.69, 5.69, 5.69, 5.69, 5.7, 5.7, 5.29, 5.06, 5.32, 5.08, 5.08, 5.08, 5.34, 5.09, 5.1, 5.1, 5.38, 5.08, 5.08, 5.08, 5.06, 4.45, 4.43, 4.11, 4.07, 3.43, 2.79, 2.5, 1.9, 1.58, 1.26, 0.6, 0.0, 0.45, 0.45, -0.63, -0.63, -0.89, -0.89, -0.89, -0.89, -0.89, -0.89, -0.89, -0.89, -0.95, -0.95, -0.8, -1.24, -1.49, -1.49, -1.24, -1.26, -1.26, -0.0, -0.63, -0.63, -0.45, 0.0, 0.57, 0.71, 1.26, 0.89, 0.63, 1.34, 3.58, 5.81, 5.82, 7.02, 9.92, 11.21, 10.37, 8.84, 7.6, 7.01, 6.85, 4.93, 4.29, 2.53, 0.57, 0.0, 0.0, 0.0, 0.0, 0.0, 0.0, 5.02, 5.02, 5.02, 5.26, 5.26, 5.26, 5.26, 5.26, 5.26, 5.26, 5.69, 5.69, 5.69, 5.69, 5.69, 5.69, 5.7, 5.29, 5.29, 5.06, 5.08, 5.08, 5.08, 5.08, 5.34, 5.09, 5.1, 5.1, 5.1, 5.08, 5.08, 5.08, 4.47, 4.45, 4.43, 4.11, 3.79, 3.16, 3.14, 2.21, 1.9, 1.24, 0.8, 0.6, 0.0, 0.0, 0.0, -0.95, -0.95, -0.63, -0.89, -0.89, -0.89, -0.89, -0.89, -0.89, -0.89, -0.89, -0.95, -1.26, -1.24, -1.49, -1.9, -1.49, -1.26, -1.26, -1.26, -1.26, -1.79, -0.63, 0.0, 0.0, 0.0, 0.63, 0.89, 0.63, 1.34, 3.13, 4.24, 3.07, 4.43, 8.63, 11.45, 10.1, 7.94, 6.26, 5.44, 5.44, 3.07, 0.6, 0.0, 0.0, 0.0, 0.0, 0.0, 0.0, 0.0, 0.0, 5.02, 5.02, 5.26, 5.26, 5.26, 5.26, 5.26, 5.26, 5.26, 5.26, 5.69, 5.69, 5.69, 5.69, 5.69, 5.69, 5.29, 5.29, 5.06, 5.06, 5.32, 5.08, 5.08, 5.08, 5.34, 5.09, 5.1, 5.38, 5.1, 5.08, 5.08, 5.08, 4.75, 4.75, 4.12, 3.83, 3.49, 3.16, 2.84, 2.21, 1.61, 1.24, 0.57, 0.0, 0.0, 0.0, 0.0, -0.6, -0.6, -0.95, -0.63, -0.89, -0.89, -0.89, -0.89, -0.89, -0.89, -0.89, -0.95, -0.8, -1.24, -1.49, -1.9, -1.9, -1.86, -1.9, -1.9, -1.9, -2.68, -1.2, -1.2, -0.63, 0.0, 0.0, 0.0, 0.45, 0.89, 1.79, 2.6, 2.41, 3.83, 6.94, 8.14, 5.86, 4.02, 3.98, 3.6, 3.07, 1.49, 1.2, 0.0, 0.0, 0.0, 0.0, 0.0, -0.63, -0.63, -0.63, 5.26, 5.26, 5.26, 5.26, 5.26, 5.26, 5.26, 5.26, 5.26, 5.26, 5.26, 5.69, 5.69, 5.69, 5.69, 5.04, 5.29, 5.29, 5.06, 5.06, 5.32, 4.66, 5.08, 5.08, 5.09, 5.09, 5.1, 5.1, 5.1, 5.08, 4.75, 4.75, 4.75, 4.75, 4.12, 4.12, 3.49, 3.15, 2.51, 1.61, 1.61, 1.0, 0.71, 0.0, 0.0, 0.0, 0.0, -0.57, -0.8, -0.6, -0.95, -0.63, -0.89, -1.34, -1.34, -1.34, -1.34, -1.34, -0.95, -0.8, -1.24, -1.9, -1.88, -2.5, -2.8, -1.7, -1.6, -1.26, -1.6, -1.34, -1.34, -0.63, -0.63, 0.45, 0.0, 0.45, 0.45, 0.89, 1.26, 1.86, 2.8, 3.74, 2.4, 1.2, 2.0, 3.07, 1.61, 1.2, 1.9, 2.91, 2.4, 1.24, 0.71, 0.54, 0.0, 0.0, 0.0, 0.0, 5.26, 5.26, 5.26, 5.26, 5.26, 5.26, 5.26, 5.26, 5.26, 5.26, 5.26, 5.69, 5.69, 5.69, 5.26, 5.04, 5.29, 5.29, 5.06, 5.06, 4.63, 4.66, 4.66, 5.34, 5.09, 5.09, 5.1, 5.1, 4.73, 4.47, 4.75, 4.75, 4.75, 4.47, 4.12, 4.12, 3.22, 2.86, 2.23, 1.84, 1.16, 1.2, 0.54, 0.0, 0.0, 0.0, -0.57, -0.57, -0.57, -0.8, -0.6, -0.95, -1.2, -1.79, -2.24, -1.79, -1.79, -1.2, -1.2, -1.26, -1.24, -1.9, -2.21, -2.5, -2.91, -1.7, -1.7, -1.26, -1.26, -1.2, -0.45, 0.0, 0.45, -0.45, 0.0, 0.0, 0.0, 0.0, 0.45, 1.2, 2.17, 1.7, -0.63, -0.45, 1.86, 1.88, 0.54, 0.61, 1.27, 2.79, 3.72, 2.79, 1.61, 0.0, 0.0, -0.57, -0.57, -0.57, 5.26, 5.26, 5.26, 5.26, 5.26, 5.26, 5.26, 5.04, 5.04, 5.26, 5.26, 5.26, 5.69, 5.26, 5.04, 5.29, 5.29, 5.29, 5.06, 4.63, 4.42, 4.66, 4.66, 4.69, 5.09, 5.09, 5.1, 5.1, 4.73, 4.73, 4.47, 4.75, 4.75, 4.47, 4.12, 3.84, 3.49, 2.86, 2.23, 1.6, 1.16, 0.53, 0.65, 0.0, 0.0, 0.0, -0.54, -0.71, -0.71, -0.57, -0.8, -0.6, -1.2, -1.79, -2.24, -2.24, -2.24, -1.7, -1.6, -1.26, -1.58, -1.9, -2.5, -2.5, -2.91, -2.91, -1.7, -1.7, -1.6, -1.2, -0.63, 0.45, -0.0, -0.0, -0.63, -0.45, 0.0, 0.0, 0.0, 0.89, 1.34, -0.0, -2.17, -1.2, 2.4, 1.26, 0.0, 0.59, 0.7, 1.32, 3.47, 4.07, 1.84, 0.0, -0.54, -1.24, -1.24, -1.24, 5.26, 5.26, 5.26, 5.26, 5.26, 5.04, 5.04, 5.04, 5.04, 5.04, 5.26, 5.26, 5.26, 5.26, 5.04, 5.29, 5.29, 5.29, 5.06, 4.63, 4.42, 4.66, 4.44, 4.69, 4.69, 4.69, 5.1, 4.71, 4.73, 4.73, 4.47, 4.47, 4.75, 4.47, 3.85, 3.84, 3.49, 2.86, 2.22, 1.8, 1.13, 0.61, 0.61, 0.0, 0.0, 0.0, -0.65, -0.54, -0.71, -0.71, -0.57, -0.8, -0.6, -1.34, -1.79, -2.24, -2.68, -2.24, -2.12, -1.7, -1.26, -1.86, -2.15, -2.68, -3.32, -3.39, -2.24, -2.24, -1.79, -1.34, -0.89, 0.0, 0.45, 0.63, -0.63, -0.45, 0.0, 0.0, 0.45, 0.89, 0.89, -1.6, -3.32, 0.63, 1.34, 0.45, 0.0, 0.0, 0.57, 0.69, 2.12, 3.4, 1.33, -0.65, -1.2, -1.49, -1.49, -1.49, 5.26, 5.26, 5.26, 5.04, 5.04, 5.04, 5.04, 5.04, 5.04, 5.04, 5.04, 5.26, 5.26, 5.04, 5.04, 5.29, 5.29, 5.29, 4.63, 4.63, 4.42, 4.66, 4.44, 4.69, 4.69, 4.69, 4.71, 4.71, 4.73, 4.73, 4.47, 4.47, 4.75, 4.1, 3.85, 3.84, 3.22, 2.84, 2.22, 1.58, 1.13, 0.59, 0.0, 0.0, 0.0, 0.0, -0.65, -0.65, -0.54, -0.71, -0.57, -0.8, -0.95, -0.89, -1.34, -1.7, -2.17, -2.68, -2.68, -2.12, -1.7, -1.86, -2.4, -2.91, -3.39, -3.53, -3.58, -3.58, -2.24, -1.79, -0.89, -0.89, 0.45, 0.0, -0.0, -0.45, 0.0, 0.0, 0.45, 1.34, 0.0, -2.91, -2.4, -0.4, -0.0, -0.0, -0.0, 0.0, 0.65, 0.66, 1.45, 1.3, 0.0, -1.9, -1.61, -1.61, -1.61, -1.61, 5.26, 5.26, 5.04, 5.04, 5.04, 5.04, 5.04, 5.04, 5.04, 5.04, 5.04, 5.26, 5.26, 5.04, 5.04, 5.04, 5.29, 5.06, 4.63, 4.63, 4.42, 4.66, 4.66, 4.69, 4.69, 4.69, 4.71, 4.71, 4.46, 4.73, 4.47, 4.47, 4.47, 4.1, 4.1, 3.45, 3.22, 2.84, 2.2, 1.76, 1.11, 0.59, 0.59, 0.0, 0.0, 0.0, -0.53, -0.65, -0.65, -0.71, -0.57, -0.8, -0.95, -0.89, -0.89, -1.34, -1.7, -2.6, -2.68, -2.24, -2.12, -1.7, -2.12, -2.63, -3.53, -3.98, -4.02, -4.47, -2.68, -2.24, -1.79, -1.2, -1.2, -0.45, -0.45, 0.45, 0.0, 0.0, 0.45, 0.63, -0.6, -3.32, -3.07, -1.26, -0.0, -0.0, -0.0, -0.0, 0.45, 0.53, 0.59, 0.0, -1.2, -1.86, -1.61, -1.88, -1.88, -1.88, 5.26, 5.26, 5.04, 5.04, 5.04, 5.04, 5.04, 5.04, 5.04, 5.04, 5.04, 5.04, 5.26, 5.04, 5.04, 5.04, 5.29, 5.06, 4.63, 4.63, 4.42, 4.66, 4.44, 4.69, 4.69, 4.69, 4.71, 4.71, 4.46, 4.73, 4.73, 4.47, 4.08, 3.84, 4.1, 3.45, 3.47, 2.82, 2.4, 1.73, 1.23, 0.57, 0.51, 0.0, 0.0, 0.0, -0.61, -0.53, -0.65, -0.54, -0.57, -0.8, -0.95, -0.63, -0.45, -0.45, -1.2, -2.12, -2.6, -2.68, -2.24, -1.7, -1.7, -2.24, -3.13, -3.58, -4.02, -4.47, -4.92, -2.68, -2.68, -1.79, -1.34, -0.89, -0.45, -0.0, 0.45, 0.0, 0.0, -0.0, -0.57, -5.32, -3.53, -1.7, -0.0, -0.0, -0.0, -0.0, -0.0, 0.0, 0.0, -1.2, -0.89, -0.95, -1.2, -1.88, -1.88, -1.88, 5.04, 5.04, 5.04, 5.04, 5.04, 5.04, 5.04, 5.29, 5.29, 5.04, 5.04, 5.04, 5.04, 5.04, 5.04, 5.04, 5.29, 4.63, 4.63, 4.63, 4.42, 4.66, 4.44, 4.69, 4.69, 4.69, 4.45, 4.71, 4.71, 4.46, 4.73, 4.47, 4.08, 4.08, 3.84, 3.45, 3.22, 2.82, 2.18, 1.73, 1.08, 0.63, 0.57, 0.0, 0.0, 0.0, 0.0, -0.61, -0.53, -0.54, -0.57, -0.6, -0.95, -0.63, -0.89, 0.45, -0.89, -1.2, -2.12, -2.17, -2.24, -2.24, -1.7, -1.7, -2.24, -2.68, -3.58, -4.02, -4.92, -3.13, -2.68, -2.24, -1.34, -0.89, -0.63, -0.0, -0.0, 0.0, 0.0, 0.0, -2.4, -4.92, -4.47, -2.24, 0.45, 0.0, -0.0, -0.53, -0.65, -0.6, -0.89, -1.26, 0.0, 0.0, -0.71, -1.49, -1.49, -1.49, 5.04, 5.04, 5.04, 5.04, 5.04, 5.04, 5.29, 5.29, 5.29, 5.29, 5.04, 5.04, 5.04, 5.04, 5.04, 5.04, 4.84, 4.63, 4.63, 4.63, 4.42, 4.2, 4.0, 4.44, 4.69, 4.69, 4.45, 4.71, 4.71, 4.46, 4.46, 4.73, 4.08, 4.08, 3.84, 3.45, 3.22, 2.8, 2.36, 1.7, 1.19, 1.08, 0.63, 0.57, 0.0, 0.0, 0.0, 0.0, -0.53, -0.65, -0.71, -0.6, -0.95, -0.63, -0.89, 0.45, -0.45, -1.34, -1.7, -2.12, -2.12, -2.12, -2.12, -2.12, -2.12, -2.12, -2.6, -3.13, -3.58, -2.68, -2.24, -2.24, -1.34, -1.34, -0.89, -0.45, 0.45, 0.0, 0.45, 0.45, -0.95, -4.02, -4.92, -3.07, -0.63, 0.0, -0.0, -0.54, -1.2, -0.57, -0.89, -0.99, 0.0, 0.0, 0.0, -0.71, -0.71, -0.71, 5.04, 5.04, 5.04, 5.04, 5.04, 5.04, 5.29, 5.29, 5.29, 5.29, 5.04, 5.04, 5.04, 5.04, 5.04, 5.04, 4.6, 4.63, 4.63, 4.63, 4.42, 4.2, 4.2, 4.0, 4.69, 4.69, 4.45, 4.45, 4.71, 4.71, 4.46, 4.46, 4.05, 4.08, 3.84, 3.42, 3.0, 2.8, 2.36, 1.7, 1.73, 1.19, 0.55, 0.57, 0.0, 0.0, 0.0, 0.0, 0.0, 0.0, -0.54, -0.6, -0.95, -0.95, -0.63, 0.89, 0.45, -0.89, -1.2, -1.49, -1.86, -1.86, -1.86, -2.4, -2.23, -1.86, -1.86, -1.7, -2.17, -2.68, -3.13, -2.17, -1.79, -1.34, -0.89, -0.89, 0.45, 0.0, 0.0, 0.45, -0.0, -3.13, -4.43, -3.51, -1.26, 0.0, 0.45, -0.95, -1.24, -0.8, -0.89, -1.6, -0.99, 0.0, 0.0, 0.0, 0.0, 0.0, 5.04, 5.04, 5.04, 5.04, 5.04, 5.04, 5.29, 5.29, 5.29, 5.29, 5.04, 5.04, 5.04, 5.04, 5.04, 4.6, 4.6, 4.63, 4.63, 4.63, 4.42, 4.2, 4.2, 4.0, 4.44, 4.69, 4.69, 4.69, 4.45, 4.71, 4.71, 4.46, 4.05, 3.83, 4.08, 3.42, 3.0, 2.8, 2.36, 1.7, 1.7, 1.19, 1.08, 0.55, 0.57, 0.0, 0.0, 0.0, 0.0, 0.0, 0.0, 0.0, -0.6, -0.95, -0.63, 0.0, 0.45, 0.45, -0.89, -1.6, -1.58, -1.24, -1.58, -1.9, -2.15, -1.9, -1.24, -1.26, -1.7, -2.12, -2.68, -1.79, -1.34, -2.24, -1.34, -1.34, -0.89, -0.0, 0.0, 0.0, -0.0, -2.17, -3.97, -3.39, -1.24, 0.0, 0.0, -0.45, -0.63, -0.63, -0.89, -1.2, -1.2, 0.0, 0.6, 1.26, 1.26, 1.26, 5.04, 5.04, 5.04, 5.04, 5.04, 5.04, 5.04, 5.29, 5.29, 5.29, 5.04, 5.04, 5.04, 5.04, 5.04, 4.6, 4.6, 4.6, 4.63, 4.63, 4.42, 3.97, 4.2, 4.2, 4.44, 4.44, 4.69, 4.69, 4.45, 4.45, 4.71, 4.05, 4.05, 3.83, 3.64, 3.42, 3.0, 2.8, 2.36, 2.36, 1.7, 1.55, 1.19, 1.08, 0.55, 0.57, 0.0, 0.0, 0.0, 0.0, 0.0, 0.0, 0.0, -0.6, -0.95, -0.63, 0.0, 0.45, -0.89, -0.95, -1.26, -1.26, -1.24, -1.9, -2.15, -2.23, -1.86, -1.26, -1.6, -1.7, -2.24, -2.24, -2.24, -3.13, -1.7, -1.7, -0.95, -0.0, -0.0, -0.0, -0.0, -0.6, -2.68, -3.32, -1.9, 0.0, 0.0, 0.0, 0.0, 0.45, 0.89, 0.63, 0.63, 0.6, 1.26, 2.4, 2.4, 2.4, 5.04, 5.04, 5.04, 5.04, 5.04, 5.04, 5.04, 5.29, 5.29, 5.29, 5.04, 5.04, 5.04, 5.04, 5.04, 4.6, 4.6, 4.6, 4.63, 4.63, 4.42, 3.97, 4.2, 4.2, 4.44, 4.44, 4.69, 4.69, 4.45, 4.45, 4.71, 4.05, 4.05, 3.83, 3.64, 3.42, 3.0, 2.8, 2.36, 2.36, 1.7, 1.55, 1.19, 1.08, 0.55, 0.57, 0.0, 0.0, 0.0, 0.0, 0.0, 0.0, 0.0, -0.6, -0.95, -0.63, 0.0, 0.45, -0.89, -0.95, -1.26, -1.26, -1.24, -1.9, -2.15, -2.23, -1.86, -1.26, -1.6, -1.7, -2.24, -2.24, -2.24, -3.13, -1.7, -1.7, -0.6, -0.0, -0.0, -0.0, -0.0, -0.0, -0.45, -2.12, -1.58, -0.57, 0.6, 1.2, 1.79, 2.68, 3.13, 3.58, 3.13, 3.13, 2.63, 3.07, 3.07, 3.07]}, {"header": {"dx": 0.06612293990616946, "dy": 0.0552356325346848, "nx": 98, "ny": 59, "la1": 35.046912555036876, "la2": 31.78801023549047, "lo1": -121.43107172385933, "lo2": -114.95102361305473, "refTime": "2026041810", "parameterCategory": 1, "parameterNumber": 3}, "data": [-11.35, -11.16, -11.16, -11.16, -10.51, -9.94, -9.21, -8.0, -6.79, -5.86, -4.55, -3.07, -0.89, -0.45, -0.45, -0.89, -1.49, -2.21, -2.15, -2.15, -1.4, -0.71, -0.0, -0.0, 0.0, 0.0, 0.0, 0.0, 1.26, 1.9, 1.58, 1.26, 0.6, 0.0, -0.6, -1.26, -1.26, -1.26, -0.63, 0.0, 0.0, 0.0, 0.0, -0.87, -3.2, -4.5, -6.09, -6.87, -7.73, -3.64, 0.0, 2.4, 2.21, 2.53, 3.45, 3.49, 3.79, 3.72, 3.22, 2.4, 0.65, 0.6, 0.89, 1.2, 1.86, 1.49, 1.6, 1.66, 1.47, 2.35, 1.55, 1.63, 0.76, 0.0, 0.0, 0.0, 0.66, 0.72, 0.0, 0.0, 0.0, 0.89, 1.2, 0.95, -0.0, 0.0, 0.0, -0.54, -1.2, -2.53, -3.82, -4.47, -4.02, -4.47, -4.47, -4.87, -4.73, -4.73, -11.16, -11.16, -11.16, -10.8, -10.87, -10.15, -9.3, -8.65, -7.72, -6.51, -5.21, -2.8, -1.7, -0.89, -1.34, 0.0, -0.89, -2.23, -2.15, -2.51, -2.15, -1.74, -0.8, 0.0, 0.0, 0.0, 0.0, 0.0, 1.2, 1.79, 1.34, 0.0, 0.0, 0.0, 0.0, 0.0, -0.65, -1.2, -1.24, -0.6, -0.57, -0.65, -1.83, -4.46, -6.79, -8.46, -9.1, -8.46, -4.36, 0.8, 2.4, 2.86, 2.84, 3.49, 3.49, 3.84, 4.11, 4.01, 3.11, 3.11, 2.29, 1.49, 1.58, 2.23, 2.23, 2.21, 2.15, 1.49, 1.55, 2.29, 2.35, 1.52, 0.81, 0.0, 0.0, 0.0, 0.73, 0.72, 0.0, 0.0, 0.0, 0.89, 1.2, 0.95, -0.0, 0.0, 0.0, -0.54, -1.2, -2.53, -3.82, -4.47, -4.02, -4.47, -4.47, -4.87, -4.73, -4.73, -11.44, -11.44, -10.8, -10.8, -10.59, -10.51, -9.86, -9.21, -8.0, -6.79, -6.03, -4.84, -2.15, -1.26, -0.6, 0.0, -0.63, -1.79, -2.15, -2.86, -3.14, -2.84, -2.21, -1.58, -0.45, 0.0, 0.63, 0.63, 0.89, 1.2, -0.0, -0.57, -0.57, -0.0, 0.0, 0.0, 0.0, -0.59, -1.33, -1.16, -1.84, -4.07, -6.14, -7.82, -8.46, -8.46, -6.79, -3.38, 0.65, 3.07, 2.53, 2.84, 3.16, 3.16, 3.49, 4.19, 3.72, 3.64, 3.33, 3.0, 2.35, 2.2, 3.16, 3.83, 3.83, 3.16, 3.07, 2.98, 2.98, 2.88, 3.0, 2.35, 1.41, 0.0, 0.0, 0.0, 0.0, 0.79, 0.0, 0.0, -0.54, 0.0, 0.45, -0.0, -0.0, 0.0, 0.0, -0.54, -1.88, -3.49, -4.93, -4.87, -4.47, -4.47, -4.47, -4.47, -4.43, -4.3, -11.07, -11.07, -11.07, -10.8, -10.87, -10.51, -9.94, -9.3, -8.65, -7.44, -6.7, -5.49, -2.86, -2.15, -1.26, -0.6, -0.8, -1.26, -1.79, -2.5, -2.53, -2.15, -2.84, -2.53, -1.9, -0.0, 0.45, 0.89, 0.89, 0.63, -0.71, -2.15, -1.88, -0.8, -0.45, -0.8, -0.76, -0.7, -2.11, -3.64, -5.3, -7.59, -7.9, -6.88, -5.49, -3.69, -0.76, 0.59, 2.3, 2.98, 2.73, 3.07, 3.07, 3.48, 3.79, 4.11, 3.72, 3.11, 3.0, 3.0, 2.35, 2.4, 3.84, 4.46, 4.84, 4.81, 4.01, 4.07, 5.06, 5.37, 4.83, 3.91, 2.26, 1.35, 0.0, -0.65, -0.61, -0.69, 0.0, -0.66, -1.2, -0.6, 0.0, 0.0, -0.0, 0.0, 0.0, -1.2, -2.51, -5.09, -6.0, -5.31, -4.47, -4.02, -4.02, -4.02, -4.02, -3.98, -11.07, -11.07, -11.07, -11.07, -10.51, -10.51, -10.15, -9.86, -9.21, -8.0, -7.35, -6.15, -3.07, -2.8, -1.9, -1.58, -1.24, -1.24, -2.12, -2.91, -2.15, -2.15, -1.6, -1.6, -1.33, -0.65, -0.0, 0.0, 0.0, 0.45, -0.63, -2.53, -4.12, -3.45, -3.13, -3.2, -2.84, -4.19, -6.01, -7.35, -7.64, -5.94, -4.16, -2.11, -0.76, 0.0, 0.72, 2.04, 2.29, 2.4, 2.2, 2.73, 3.07, 3.48, 3.72, 3.64, 2.88, 2.88, 3.2, 3.09, 2.35, 2.3, 4.22, 5.05, 5.46, 5.43, 4.74, 4.43, 5.09, 5.69, 4.46, 3.8, 3.6, 3.2, 1.41, 0.0, -1.16, -1.41, -0.74, -0.66, -0.95, -0.89, -0.45, -0.63, -0.6, -1.79, -1.9, -2.51, -4.74, -6.08, -5.05, -4.24, -3.97, -4.02, -3.53, -3.53, -3.58, -3.53, -11.07, -11.07, -11.07, -11.07, -10.51, -10.51, -10.15, -9.86, -9.3, -8.65, -7.44, -6.7, -3.45, -2.5, -1.9, -2.15, -2.23, -1.9, -2.5, -3.53, -3.49, -3.15, -2.07, -0.7, -0.7, -1.6, -1.74, -1.58, -1.34, 0.0, 0.0, -1.2, -3.32, -6.07, -6.71, -6.58, -5.86, -6.08, -6.95, -7.69, -6.64, -4.65, -2.07, -1.47, -0.74, 0.0, 1.63, 2.47, 2.29, 2.0, 1.49, 2.07, 2.79, 2.79, 3.07, 2.88, 2.29, 2.4, 3.0, 2.99, 2.35, 2.41, 4.4, 5.05, 5.09, 5.43, 4.65, 4.01, 3.79, 4.01, 3.2, 2.26, 3.09, 2.99, 2.18, 0.78, 0.0, -1.33, 0.0, 0.0, -0.45, -1.79, -2.24, -2.24, -2.6, -3.58, -4.73, -6.07, -6.44, -5.6, -4.73, -4.24, -3.97, -3.07, -2.5, -2.4, -3.13, -3.53, -11.07, -11.07, -11.07, -10.7, -10.51, -10.51, -10.15, -9.86, -9.5, -8.84, -8.0, -7.07, -3.84, -2.5, -3.35, -1.86, -2.23, -3.22, -3.49, -3.39, -2.91, -2.79, -3.72, -4.01, -2.41, -2.84, -3.22, -3.32, -3.47, -1.86, -0.0, 0.0, -1.34, -3.13, -5.81, -6.71, -7.11, -6.32, -5.37, -3.84, -2.23, -2.12, -2.6, -2.99, -0.96, 2.07, 4.74, 3.79, 3.33, 2.12, 1.14, 1.33, 2.3, 2.79, 2.3, 2.2, 2.2, 2.2, 2.29, 2.26, 2.2, 2.41, 2.86, 3.45, 3.83, 4.46, 3.9, 3.22, 1.49, 1.55, 0.72, 0.76, 0.72, 0.79, 0.0, 0.0, 0.0, 0.59, 1.13, 1.35, 0.0, -3.07, -3.53, -3.58, -4.47, -6.58, -7.89, -7.2, -6.4, -4.0, -4.3, -4.73, -3.58, -1.24, -0.54, -1.7, -2.6, -2.91, -11.07, -10.7, -10.7, -10.51, -10.51, -10.51, -10.15, -10.23, -9.86, -9.21, -8.55, -7.61, -4.46, -2.86, -3.48, -1.9, -1.9, -3.16, -3.48, -2.07, 0.0, 0.0, -1.34, -3.49, -5.46, -4.98, -5.94, -5.6, -4.29, -2.53, -1.9, -1.6, -2.24, -3.04, -4.73, -6.22, -7.12, -6.28, -2.95, -0.71, 0.0, 0.0, -0.95, -0.95, 1.6, 3.47, 4.46, 3.79, 3.79, 2.26, 0.61, 1.84, 2.79, 2.73, 2.73, 2.73, 2.98, 2.29, 2.2, 1.52, 2.29, 1.6, 1.86, 2.54, 3.04, 2.86, 2.29, 1.47, 0.0, 0.0, 0.0, 0.0, -0.72, -1.49, -1.49, -0.67, 0.0, 2.11, 2.04, 0.76, 0.0, -3.16, -4.73, -5.78, -7.04, -8.24, -7.84, -6.94, -4.3, -3.39, -3.39, -3.98, -2.68, -0.0, -0.0, -0.89, -1.86, -2.68, -11.07, -10.7, -10.51, -10.51, -10.51, -10.51, -10.15, -10.23, -9.86, -9.58, -9.1, -8.43, -6.7, -6.4, -4.46, -2.86, -4.22, -3.49, -2.53, -1.4, 0.0, 0.7, 0.0, -1.24, -3.82, -4.98, -4.57, -4.89, -4.47, -3.48, -4.15, -5.73, -6.26, -5.73, -5.16, -4.87, -5.26, -3.58, -1.34, 0.89, 0.89, 0.89, 0.0, 1.34, 2.24, 2.17, 1.9, 1.6, 2.88, 2.98, 3.22, 2.84, 3.48, 3.43, 3.22, 3.11, 3.11, 3.0, 2.51, 2.12, 1.52, 1.33, 1.26, 1.7, 2.12, 2.53, 2.29, 0.72, 0.0, 0.0, 0.0, -0.7, -1.55, -1.36, -1.32, -0.7, 0.0, 0.0, 0.76, 0.0, 0.0, -1.23, -4.0, -5.94, -6.85, -7.14, -6.64, -4.73, -2.63, -1.79, -2.0, -2.63, -1.79, 0.0, 0.0, 0.0, -1.24, -2.5, -10.7, -10.7, -10.51, -10.51, -10.51, -10.51, -10.15, -10.41, -9.86, -9.5, -9.21, -9.21, -8.0, -8.15, -6.94, -7.21, -7.35, -8.14, -7.31, -6.36, -3.95, -3.2, -2.15, -2.15, -2.24, -2.8, -2.53, -2.68, -4.74, -5.51, -6.71, -6.71, -5.81, -5.36, -5.36, -4.38, -2.6, -0.89, -0.0, 0.0, 0.0, 0.0, 0.0, 0.89, 1.34, 1.2, 0.6, 0.71, 1.2, 2.53, 3.45, 3.14, 3.48, 2.98, 3.22, 3.33, 3.2, 2.26, 1.55, 1.55, 0.74, 1.41, 3.16, 2.12, 2.8, 2.15, 2.29, 2.2, 0.61, 0.0, -0.65, -1.41, -2.06, -1.4, -1.36, -0.67, -1.41, -1.47, -2.06, -1.4, -0.69, 0.0, -1.84, -3.6, -4.0, -4.0, -4.0, -2.68, -0.63, 0.0, -1.34, -2.6, -2.6, -1.2, -0.63, -0.6, -1.24, -2.5, -10.7, -10.7, -10.51, -10.51, -10.79, -10.51, -10.15, -10.41, -9.86, -9.86, -9.3, -9.3, -8.73, -8.0, -6.82, -6.94, -8.3, -9.7, -10.47, -11.57, -11.18, -9.39, -6.21, -3.53, -1.2, -0.0, -0.71, -0.71, -2.8, -4.38, -3.58, -2.24, -1.2, -2.17, -3.13, -3.58, -2.24, -0.0, -0.6, -0.45, -0.89, -0.45, 0.0, 1.34, 2.68, 1.79, 2.24, 1.7, 1.86, 2.4, 2.4, 1.88, 2.15, 2.2, 2.11, 2.2, 2.26, 1.49, 0.0, 0.0, 0.72, 2.3, 3.22, 3.74, 4.24, 3.79, 3.11, 3.0, 1.55, 0.0, -0.7, -2.04, -1.98, -1.41, -1.3, -1.41, -2.11, -2.98, -3.9, -3.91, -2.69, -1.4, 0.0, -1.84, -2.5, -1.88, -1.61, -1.16, 0.0, 0.0, -1.79, -3.07, -3.32, -2.4, -1.7, -1.2, -1.49, -2.4, -10.7, -10.7, -10.51, -10.79, -10.79, -10.41, -10.41, -10.41, -9.86, -9.86, -9.5, -9.3, -9.3, -8.38, -6.92, -6.28, -5.65, -6.79, -7.61, -8.72, -7.87, -5.36, -4.34, -2.21, -0.0, 0.98, 1.27, 1.88, -0.0, -2.15, -1.6, -0.0, 1.2, 0.65, -0.57, -1.58, -1.24, -0.71, -0.57, -0.0, 0.0, 0.89, 1.79, 4.02, 4.77, 3.51, 3.04, 2.24, 1.2, 0.95, 0.0, 0.0, 0.0, 0.0, 0.73, 0.82, 0.79, 0.0, -0.76, 0.0, 1.4, 3.83, 4.66, 4.02, 3.04, 3.48, 3.79, 3.69, 2.35, 0.76, -0.7, -2.11, -2.11, -1.49, -0.73, -1.41, -1.47, -3.07, -4.29, -4.94, -3.55, -2.2, -0.74, 0.0, -0.61, -0.53, -1.33, -1.27, -0.59, 0.0, -1.58, -3.39, -3.6, -2.15, -1.26, -1.2, -1.7, -2.6, -10.7, -10.7, -10.79, -10.79, -10.41, -10.41, -10.41, -10.41, -10.23, -9.86, -9.86, -9.3, -9.02, -8.78, -7.86, -6.95, -5.1, -4.46, -4.71, -5.1, -4.08, -1.76, -0.99, 0.0, -0.0, -0.0, 1.16, 2.29, 1.63, -0.0, -0.7, -0.0, 1.27, 1.33, 0.65, -0.0, -0.0, -0.0, -0.0, 0.57, 1.86, 2.17, 2.6, 2.6, 2.97, 3.39, 2.54, 1.34, 0.0, -1.6, -2.17, -2.6, -3.45, -4.66, -4.11, -4.11, -2.2, 0.0, -0.82, 0.0, 2.24, 4.41, 4.47, 2.68, 1.2, 0.71, 2.3, 3.33, 3.11, 1.41, 0.0, -0.7, -1.49, -1.41, -1.47, -2.35, -2.2, -2.29, -3.32, -3.64, -3.07, -2.07, -2.72, -3.09, 0.0, -0.73, -1.35, -2.0, -1.27, -0.59, -1.33, -2.53, -2.79, -1.88, -1.2, -0.57, -0.63, -2.12, -10.96, -10.96, -10.79, -10.79, -10.41, -10.41, -10.41, -10.41, -10.23, -9.86, -9.86, -9.37, -9.37, -9.02, -8.78, -7.59, -6.35, -5.34, -4.44, -3.97, -3.49, -1.65, -0.57, 0.0, -0.51, -0.89, -0.0, 0.54, 1.12, -0.0, -0.0, -0.0, -0.0, -0.0, -0.0, -0.0, -0.0, -0.0, 0.71, 1.49, 2.23, 2.23, 2.12, 4.34, 4.34, 3.82, 1.7, 0.89, 0.0, -1.2, -3.04, -5.26, -6.79, -5.94, -4.82, -4.24, -3.47, -2.0, -0.98, 0.89, 2.23, 2.97, 3.13, 1.34, -0.45, -1.2, 0.0, 0.0, 1.08, 1.2, 1.49, 0.0, -0.65, -1.33, -3.11, -3.69, -3.11, -2.6, -2.98, -2.3, -2.21, -3.48, -4.29, -4.14, -1.98, -2.35, -2.2, -1.27, -1.33, -0.59, -0.63, -1.8, -2.07, -1.49, -1.27, -0.53, 0.0, -1.2, -10.96, -10.96, -10.79, -10.79, -10.41, -10.41, -10.41, -10.41, -10.23, -9.86, -9.59, -9.59, -9.37, -9.37, -8.5, -8.22, -7.3, -6.35, -5.46, -4.63, -4.12, -3.42, -2.23, -1.71, -1.12, -1.1, -1.11, 0.0, -0.0, -0.0, 0.57, -0.0, -0.0, -0.0, -0.0, 1.4, 1.2, 0.6, 1.6, 1.86, 2.23, 3.82, 2.8, 2.68, 3.13, 3.13, 3.13, 2.68, 1.79, 0.0, -1.6, -2.6, -1.58, 0.0, 0.0, -0.95, -2.6, -4.09, -1.4, 0.89, 0.6, 0.95, 0.63, 0.0, -1.34, -3.13, -3.9, -3.39, -1.26, 0.95, 1.86, 1.86, 0.57, 0.0, -2.07, -3.64, -3.43, -2.98, -2.3, -1.33, -1.4, -2.15, -2.66, -2.04, -2.0, -3.9, -2.88, -2.07, -1.4, -1.33, -1.41, -1.88, -2.66, -1.94, -0.7, -0.54, -1.26, -1.26, -10.96, -10.96, -10.96, -10.79, -10.41, -10.41, -10.41, -10.41, -10.23, -10.23, -9.59, -9.59, -9.37, -9.37, -8.78, -8.22, -7.9, -6.98, -6.34, -5.26, -4.57, -4.08, -3.53, -2.33, -1.71, -1.11, -0.57, -0.56, 0.0, 0.0, 0.0, -0.0, 0.54, 1.2, 2.53, 1.9, 1.9, 1.9, 4.09, 4.09, 2.12, 1.79, 2.68, 3.13, 3.13, 3.13, 3.13, 2.68, 2.24, 1.79, 0.0, 0.0, 0.8, 1.6, 1.2, 0.0, -1.58, -1.9, 0.0, 0.95, 0.89, 0.0, 0.0, 0.0, 0.0, -2.54, -4.87, -3.58, -1.34, 0.45, 1.34, 1.34, 1.86, 1.2, 0.0, -1.88, -2.53, -2.21, -1.2, -0.53, 0.0, 0.0, 0.0, -0.76, -0.7, -1.33, -2.79, -2.23, -1.88, -2.15, -2.0, -2.88, -2.2, -1.23, -1.41, -1.13, -1.24, -1.24, -10.96, -10.96, -10.96, -10.79, -10.41, -10.41, -10.41, -10.23, -10.23, -10.23, -9.94, -9.94, -9.37, -9.37, -8.78, -8.22, -7.9, -7.32, -6.71, -5.69, -5.02, -3.89, -3.53, -2.33, -1.12, -0.56, -0.57, -0.58, -0.56, -1.14, -1.12, -0.59, 0.0, 0.89, 2.4, 3.07, 3.84, 4.29, 3.35, 4.4, 3.82, 1.79, 3.58, 1.79, 3.13, 3.13, 2.68, 2.24, 1.79, 2.24, 2.24, 2.24, 1.9, 1.9, 0.0, 0.0, 0.0, 1.4, 2.8, 2.4, 1.58, 1.58, 1.58, 2.24, 2.24, 0.0, -2.12, -3.13, -1.79, 0.0, -0.0, -0.0, 0.45, 1.26, 0.57, -1.2, -1.79, -1.2, -0.57, 0.0, 0.0, 0.0, 0.0, 0.0, -0.72, -0.61, -1.88, -1.88, -2.53, -2.79, -2.54, -2.11, -2.23, -1.94, -2.04, -1.8, -1.88, -1.88, -10.96, -10.96, -10.96, -10.79, -10.41, -10.41, -10.41, -9.86, -9.86, -9.86, -9.94, -9.94, -9.59, -9.37, -8.78, -7.9, -8.22, -7.61, -6.98, -5.69, -4.76, -4.54, -3.39, -1.69, 0.0, 0.0, -0.56, -1.12, -1.71, -2.28, -2.33, -1.76, -0.57, 1.24, 3.13, 2.8, 2.84, 3.16, 2.21, 2.0, 1.6, 1.34, 1.34, 1.34, 2.68, 2.68, 2.24, 2.24, 2.24, 2.24, 2.68, 2.68, 2.4, 1.9, 1.58, 0.0, 1.13, 2.53, 2.53, 1.2, 1.4, 0.0, 0.0, 2.24, 3.2, 1.2, 0.0, -2.54, -3.13, -1.79, -1.58, -1.58, -1.2, 0.0, 0.0, -0.99, -2.5, -2.24, -1.26, -0.57, 0.0, -0.59, -0.63, -2.04, -1.27, -1.88, -2.15, -1.2, -2.53, -3.48, -2.88, -1.47, -2.44, -3.12, -2.88, -1.8, -2.15, -2.15, -10.96, -10.96, -10.96, -10.41, -10.41, -10.41, -10.41, -9.86, -9.86, -9.86, -9.59, -9.59, -9.59, -9.37, -9.02, -7.64, -7.86, -7.6, -6.35, -5.04, -4.54, -5.17, -5.0, -3.06, -1.58, -1.09, -1.65, -2.31, -2.26, -3.37, -2.75, -1.67, -1.27, 0.0, 1.7, 3.39, 3.72, 2.86, 1.9, 1.58, 1.7, 1.34, 1.34, 2.68, 2.24, 1.79, 1.79, 1.79, 2.24, 2.68, 2.68, 3.13, 3.13, 2.8, 2.8, 2.53, 1.6, 1.13, 1.13, 0.0, 0.0, 0.0, 0.0, 1.34, 2.23, 1.58, 0.0, -2.53, -2.84, -1.26, -1.34, -1.7, -1.24, -0.65, 0.0, -1.2, -3.45, -4.24, -3.13, -2.4, -2.53, -2.79, -3.43, -3.78, -3.72, -4.46, -6.07, -5.72, -4.74, -4.12, -2.79, -2.11, -2.88, -3.12, -2.73, -2.0, -2.51, -2.51, -11.22, -10.96, -10.96, -10.41, -10.41, -10.41, -10.41, -9.86, -9.86, -9.86, -9.59, -9.59, -9.59, -9.37, -9.02, -7.86, -7.59, -7.55, -6.32, -5.49, -5.41, -6.27, -6.96, -6.05, -5.38, -4.83, -3.8, -4.03, -4.08, -3.22, -1.84, -1.24, -0.8, 0.0, 1.2, 2.24, 3.13, 2.91, 2.68, 2.91, 3.07, 3.13, 2.68, 2.68, 2.68, 1.34, 1.79, 1.79, 2.24, 2.68, 2.68, 3.13, 3.13, 2.8, 1.6, 1.58, 2.48, 1.24, 0.0, 0.0, 0.0, 0.0, 0.0, 2.24, 1.6, 0.6, 0.0, 0.0, 0.0, 0.79, 0.73, 0.76, 0.0, 0.0, -2.31, -2.07, -3.07, -5.64, -4.02, -3.32, -3.45, -3.49, -3.48, -3.48, -4.09, -4.27, -4.0, -3.14, -4.11, -3.72, -3.72, -3.72, -3.9, -4.12, -3.78, -3.48, -3.48, -3.48, -11.22, -11.22, -10.83, -10.41, -10.41, -10.41, -10.41, -9.86, -9.86, -9.86, -9.86, -9.59, -9.59, -9.37, -9.37, -8.78, -7.86, -7.81, -8.08, -7.64, -7.52, -7.33, -7.33, -7.33, -7.61, -6.71, -5.29, -4.03, -3.04, -1.2, -0.63, 0.0, 0.0, 0.0, 1.26, 2.4, 2.91, 3.07, 3.13, 3.58, 3.58, 3.58, 3.58, 3.58, 3.13, 1.79, 1.79, 1.79, 2.24, 2.68, 2.68, 2.68, 2.68, 2.68, 2.8, 1.26, 1.49, 1.9, 0.0, 0.0, -1.79, 0.0, -0.0, 1.2, 0.6, 0.6, 0.63, 0.45, 2.23, 4.19, 4.65, 3.88, 1.58, -0.74, -3.95, -6.53, -5.16, -4.73, -5.34, -4.02, -3.51, -3.07, -2.53, -2.23, -1.9, -2.4, -1.86, -1.58, -1.6, -2.51, -4.46, -5.72, -4.65, -3.79, -4.66, -4.37, -3.78, -3.78, -11.22, -10.83, -10.83, -10.68, -10.68, -10.41, -10.04, -9.86, -9.86, -9.86, -9.86, -9.59, -9.59, -9.37, -9.37, -9.02, -8.45, -8.19, -8.5, -8.85, -7.95, -6.98, -6.7, -6.98, -6.71, -5.92, -4.57, -2.97, -1.09, -0.54, 0.0, 0.0, 0.0, 0.71, 1.2, 2.21, 2.79, 3.2, 3.39, 3.98, 4.02, 4.02, 4.02, 3.58, 3.58, 2.68, 1.34, 1.79, 2.24, 2.24, 2.68, 2.68, 2.68, 2.68, 2.68, 2.8, 1.86, 2.4, 1.79, -0.0, -0.0, -0.0, 0.8, 0.6, -0.0, 0.95, 0.95, 0.63, 1.34, 1.79, 2.98, 3.22, 2.15, 0.65, -6.4, -8.49, -6.98, -4.0, -3.13, -3.32, -3.58, -3.09, -2.4, -0.99, -0.57, -0.57, -0.57, -1.61, -2.48, -2.8, -5.35, -6.35, -5.37, -3.79, -3.35, -3.6, -3.72, -3.72, -10.83, -10.83, -10.83, -10.68, -10.68, -10.3, -10.04, -9.86, -9.86, -9.86, -9.86, -9.86, -9.37, -9.37, -9.37, -9.02, -8.78, -8.5, -8.53, -8.56, -7.61, -6.08, -5.46, -5.32, -5.29, -5.04, -3.91, -2.77, -1.65, -1.14, -0.56, 0.0, 0.0, 0.57, 1.13, 1.8, 2.51, 3.14, 3.6, 4.3, 4.44, 4.44, 3.98, 3.98, 3.53, 3.13, 2.24, 2.24, 2.24, 2.24, 2.24, 2.68, 2.68, 2.68, 2.68, 2.68, 1.79, 2.24, 1.34, -0.0, -0.0, -0.0, -0.0, 0.63, 0.95, 1.6, 1.34, 0.89, 0.0, 0.0, 0.0, -0.0, 1.79, 1.34, -4.47, -7.56, -7.59, -5.35, -2.23, -2.17, -3.07, -3.53, -3.13, -2.24, -2.12, -1.86, -2.5, -2.84, -4.43, -5.0, -5.31, -6.01, -4.11, -2.53, -2.15, -3.07, -3.43, -3.43, -10.83, -10.83, -10.83, -10.68, -10.3, -10.3, -10.04, -9.86, -9.86, -9.86, -9.86, -9.86, -9.66, -9.37, -9.02, -9.02, -9.37, -8.82, -8.53, -7.95, -7.61, -6.33, -5.04, -4.63, -4.63, -4.63, -3.94, -3.45, -2.39, -1.73, -1.14, -0.59, 0.0, 0.0, 0.61, 1.23, 2.22, 2.86, 3.43, 4.11, 4.77, 4.77, 4.44, 3.98, 3.53, 3.58, 2.68, 2.68, 2.24, 2.68, 2.68, 2.24, 2.24, 2.24, 2.24, 2.68, 1.34, 1.34, 0.89, 0.45, -0.0, -0.6, -0.4, 0.6, 1.58, 2.54, 1.79, 2.24, 0.0, -0.89, -1.7, -0.0, 0.89, 0.89, 0.0, -5.26, -6.99, -6.18, -4.47, -1.88, -2.0, -3.53, -3.82, -4.02, -3.58, -3.97, -4.24, -5.05, -5.69, -4.12, -4.43, -2.79, -1.86, -0.95, -1.86, -3.14, -4.12, -4.12, -11.08, -11.08, -10.55, -10.3, -10.3, -10.3, -10.13, -9.86, -9.86, -9.86, -9.86, -9.66, -9.3, -9.3, -9.02, -9.02, -9.37, -8.82, -8.53, -8.24, -7.33, -6.97, -6.33, -5.26, -4.6, -4.6, -3.94, -3.45, -2.93, -2.28, -1.67, -1.16, -0.56, 0.0, 0.0, 1.07, 1.73, 2.44, 3.48, 4.27, 4.6, 4.77, 4.34, 3.87, 3.53, 3.53, 3.13, 2.68, 2.68, 2.68, 3.13, 2.68, 2.24, 2.24, 2.24, 2.24, 2.24, 0.89, 0.0, 0.0, 0.0, -0.89, -0.8, 0.6, 1.86, 2.12, 1.7, 1.2, -0.0, -0.95, -1.26, -1.7, 0.0, 0.0, 0.0, -0.6, -2.21, -3.48, -4.47, -2.15, -2.21, -2.91, -4.02, -4.88, -5.36, -4.92, -5.2, -5.44, -4.4, -3.2, -1.49, -0.57, -0.6, -0.6, -1.9, -3.14, -3.78, -3.78, -10.55, -10.55, -10.55, -10.3, -10.3, -10.3, -10.3, -9.86, -9.86, -9.86, -9.3, -9.3, -9.3, -9.3, -9.02, -9.02, -9.02, -8.82, -8.53, -7.93, -7.61, -7.26, -6.71, -5.92, -5.26, -4.6, -4.6, -4.16, -3.49, -2.83, -2.33, -1.71, -1.18, -0.57, 0.0, 0.53, 1.16, 2.2, 3.15, 4.0, 4.4, 4.6, 4.11, 3.87, 3.39, 3.53, 3.07, 2.68, 2.68, 3.13, 3.13, 3.13, 2.24, 2.0, 2.0, 1.58, 1.58, 2.24, 0.0, -0.45, -0.95, -0.8, -0.95, 0.0, 1.6, 1.6, 1.6, 1.2, -0.63, -0.89, -1.7, -2.12, -1.58, 0.0, 0.0, 0.0, -1.0, -2.51, -3.48, -2.84, -4.19, -3.72, -3.82, -4.47, -4.87, -4.47, -4.43, -3.82, -3.07, -2.68, -2.24, -0.57, -0.53, -1.16, -2.23, -2.53, -3.16, -3.16, -10.55, -10.55, -10.55, -10.55, -10.3, -10.3, -10.13, -10.13, -9.5, -9.5, -9.3, -9.3, -9.3, -9.3, -9.3, -9.02, -9.02, -8.5, -8.82, -7.93, -7.61, -7.32, -6.98, -6.33, -5.92, -5.26, -4.6, -3.94, -3.49, -3.01, -2.21, -1.73, -1.12, -0.58, 0.0, 0.0, 0.54, 1.19, 2.22, 3.43, 3.88, 3.88, 3.88, 3.6, 3.39, 2.91, 3.07, 2.68, 3.13, 3.13, 3.13, 3.13, 2.68, 2.6, 1.26, 0.6, 1.58, 1.58, -0.0, -0.0, -0.89, -0.8, -0.71, 0.0, 2.68, 1.34, 1.2, 0.0, -1.2, -1.79, -3.04, -3.2, -2.4, -1.26, 0.0, 0.32, 0.0, -1.61, -3.48, -3.84, -4.84, -5.36, -4.09, -3.58, -3.87, -4.47, -4.47, -3.13, -1.79, -2.0, -3.09, -3.53, -1.84, -2.07, -2.51, -2.51, -2.51, -2.51, -10.55, -10.55, -10.55, -10.55, -10.55, -10.3, -9.76, -9.76, -9.76, -9.3, -9.3, -9.3, -9.3, -9.3, -9.3, -9.02, -8.78, -8.78, -8.5, -7.93, -7.61, -7.32, -6.98, -6.61, -6.33, -5.69, -5.26, -4.6, -4.16, -3.52, -2.89, -1.73, -1.12, -0.58, 0.0, 0.0, 0.54, 1.08, 2.22, 3.16, 3.43, 3.72, 3.72, 3.6, 3.6, 3.39, 3.07, 2.68, 3.13, 3.13, 3.13, 3.13, 2.68, 2.63, 2.4, 0.6, -0.0, -0.0, -0.0, -0.0, 0.0, -0.6, 0.0, 0.0, 0.8, 2.24, 0.0, -0.45, -1.34, -1.79, -1.7, -2.21, -3.22, -2.17, -0.6, -0.0, 0.0, -0.99, -2.21, -3.84, -4.46, -6.15, -6.15, -3.45, -3.13, -3.53, -4.3, -2.68, -1.86, -2.63, -3.97, -4.02, -3.14, -3.16, -3.16, -2.51, -2.48, -2.48, -10.55, -10.55, -10.16, -10.16, -10.16, -9.76, -9.76, -9.76, -9.76, -9.76, -9.3, -9.3, -9.3, -9.3, -9.3, -9.08, -8.78, -8.78, -8.5, -8.22, -7.93, -7.32, -6.7, -6.7, -6.34, -5.7, -5.7, -5.29, -4.16, -3.52, -2.89, -2.26, -1.65, -0.58, 0.0, 0.0, 0.0, 1.23, 1.8, 2.84, 2.84, 3.35, 3.6, 2.4, 2.4, 3.82, 3.39, 3.09, 3.13, 3.13, 3.13, 2.68, 2.68, 2.68, 2.6, 1.86, -0.0, -0.0, -0.0, -0.0, -0.0, 0.0, 0.0, 0.0, 0.6, 0.0, 0.0, 0.0, -0.45, -1.34, -1.79, -2.15, -2.29, -3.79, -2.68, -1.26, -0.63, -1.34, -1.9, -2.53, -3.49, -6.03, -6.44, -5.06, -2.53, -2.24, -3.45, -3.49, -3.39, -4.02, -4.47, -4.47, -4.43, -3.72, -3.16, -3.16, -3.15, -3.15, -10.16, -10.16, -10.16, -10.16, -10.02, -10.02, -9.76, -9.76, -9.76, -9.76, -9.3, -9.3, -9.3, -9.3, -9.3, -8.73, -8.45, -8.78, -8.78, -8.5, -8.22, -7.6, -6.98, -6.69, -6.35, -5.98, -5.7, -5.06, -4.42, -4.0, -3.37, -2.4, -1.76, -1.14, -0.53, 0.0, 0.0, 0.57, 1.8, 2.51, 2.84, 2.79, 3.07, 3.07, 3.39, 2.17, 2.17, 3.53, 3.13, 3.13, 2.68, 2.68, 2.68, 2.68, 2.68, 2.17, 1.26, 0.71, -0.0, -0.0, -0.0, 0.0, 0.0, 0.0, 0.0, 0.0, -0.63, -0.0, -0.0, -0.89, -3.04, -3.83, -2.29, -2.99, -4.03, -2.53, -2.12, -1.79, -2.24, -2.5, -3.49, -5.78, -7.07, -6.57, -4.45, -1.88, -2.24, -3.82, -4.43, -5.81, -5.32, -4.92, -4.47, -4.24, -3.72, -4.09, -3.78, -3.78, -10.16, -10.16, -10.16, -10.02, -10.02, -10.02, -9.76, -9.76, -9.76, -9.76, -9.58, -9.3, -9.3, -8.94, -8.73, -8.73, -8.73, -8.45, -8.45, -8.78, -7.9, -7.9, -7.3, -6.69, -6.35, -5.72, -5.72, -5.08, -4.44, -4.0, -3.56, -2.92, -2.29, -1.8, -0.53, -0.54, 0.0, 0.57, 1.27, 1.84, 2.23, 2.79, 3.07, 2.91, 2.63, 1.79, 1.7, 3.07, 3.13, 3.13, 2.68, 2.68, 2.68, 2.68, 2.68, 2.6, 2.17, 1.7, 1.26, 0.6, -0.0, 0.0, 0.0, -1.2, -1.34, -0.89, -1.34, -1.58, -1.79, -2.21, -5.34, -5.75, -3.45, -1.6, -2.23, -3.7, -3.9, -1.9, -2.17, -2.8, -3.14, -4.73, -6.56, -7.07, -6.23, -4.16, -2.86, -2.49, -3.13, -4.02, -4.88, -4.88, -4.47, -4.88, -4.52, -4.93, -4.66, -4.66, -10.16, -10.16, -10.16, -10.02, -10.02, -10.02, -10.02, -9.76, -9.76, -9.58, -9.58, -9.3, -9.3, -8.94, -8.73, -8.73, -8.73, -8.73, -8.45, -8.45, -8.19, -8.19, -7.3, -6.69, -6.35, -6.0, -5.72, -5.09, -4.03, -3.81, -4.03, -3.4, -2.96, -1.8, -1.14, -0.59, 0.0, 0.0, 0.59, 1.6, 2.23, 2.21, 2.5, 2.4, 2.6, 2.17, 2.17, 2.68, 2.68, 2.68, 2.68, 2.68, 2.68, 2.68, 2.63, 2.6, 2.17, 2.24, 1.7, 1.26, -0.0, -0.6, -0.6, -1.26, -0.95, -0.45, -0.4, -1.79, -3.58, -5.4, -3.83, -2.68, -2.68, -1.74, -0.78, -2.31, -3.2, -1.88, -1.24, -1.88, -2.53, -2.53, -3.45, -5.75, -6.15, -5.06, -3.84, -2.22, -1.49, -2.0, -3.13, -3.97, -4.43, -4.92, -5.2, -5.2, -4.93, -4.93, -10.16, -10.16, -10.02, -10.02, -10.02, -10.02, -10.02, -9.63, -9.38, -9.21, -9.21, -9.21, -8.94, -8.94, -8.73, -8.73, -8.73, -8.73, -8.38, -8.38, -8.15, -7.86, -7.59, -6.97, -6.35, -6.06, -5.72, -5.72, -5.1, -3.79, -3.83, -3.4, -2.77, -2.32, -1.67, -1.16, -0.61, 0.0, 0.57, 1.13, 1.61, 2.21, 2.5, 2.4, 2.17, 2.24, 2.24, 2.68, 2.68, 2.68, 2.24, 2.68, 2.68, 2.68, 2.63, 2.6, 2.17, 2.24, 2.24, 1.7, 0.57, -0.6, -1.9, -0.6, -0.0, 0.0, 0.0, 0.0, -1.9, -2.23, -0.95, 0.0, -1.7, -2.8, -2.0, -1.41, -1.4, -1.26, -0.57, 0.0, -0.66, -0.59, -1.4, -2.21, -4.37, -4.74, -4.45, -3.22, -1.33, -0.65, -1.24, -2.17, -3.58, -4.88, -5.36, -4.87, -4.73, -4.73, -10.27, -10.27, -10.02, -10.02, -9.63, -9.63, -9.63, -9.63, -9.63, -9.21, -9.21, -9.21, -9.21, -8.94, -8.73, -8.73, -8.73, -8.38, -8.38, -8.15, -8.15, -8.15, -7.59, -6.97, -6.67, -6.06, -5.72, -5.72, -5.72, -4.71, -4.08, -3.42, -3.0, -2.32, -1.67, -1.16, -0.54, 0.0, 0.0, 0.59, 1.16, 1.88, 1.9, 1.86, 2.12, 2.24, 2.24, 2.24, 2.24, 2.24, 2.24, 2.68, 2.68, 2.68, 2.63, 2.68, 2.24, 1.79, 1.79, 1.79, -0.0, 0.0, 0.0, 0.0, 0.0, 0.0, 0.0, 0.0, 0.0, -0.6, 0.0, 0.0, -1.26, -4.84, -4.43, -1.84, -0.71, 0.57, 1.4, 0.63, 0.0, 0.0, -0.59, -1.33, -2.07, -3.49, -3.84, -3.22, -1.8, -1.33, -1.2, -0.71, -2.4, -4.47, -6.22, -4.88, -4.44, -4.44, -10.27, -10.27, -9.63, -9.63, -9.63, -9.63, -9.63, -9.63, -9.48, -9.21, -9.21, -9.21, -9.21, -9.21, -9.21, -8.73, -8.73, -8.38, -8.38, -8.15, -8.15, -8.15, -7.55, -7.55, -6.95, -6.34, -5.72, -5.72, -5.1, -5.1, -4.73, -3.84, -3.45, -2.8, -2.36, -1.7, -1.07, -0.55, 0.0, 0.51, 1.16, 1.2, 1.58, 1.86, 1.79, 1.79, 2.24, 2.24, 2.24, 2.24, 2.24, 2.68, 2.63, 2.63, 2.68, 2.24, 2.24, 1.79, 1.79, 1.79, 1.34, 1.34, 0.0, 0.0, 0.0, 0.0, 0.0, 0.0, -0.45, -0.63, -0.63, -1.79, -3.16, -5.0, -5.3, -2.2, 0.0, 2.98, 3.55, 2.35, 0.0, -0.67, -1.27, -1.27, -1.8, -2.18, -2.82, -2.0, -1.8, -1.33, -1.61, -1.2, -1.24, -2.63, -4.92, -6.67, -5.36, -5.36, -9.88, -9.88, -9.63, -9.63, -9.63, -9.63, -9.63, -9.63, -9.48, -9.48, -9.21, -9.21, -9.21, -9.21, -9.21, -9.01, -8.65, -8.65, -8.65, -8.08, -8.08, -8.08, -7.81, -7.55, -6.95, -6.34, -5.72, -5.71, -5.38, -5.1, -4.73, -4.47, -3.85, -2.8, -2.36, -1.7, -1.07, -0.55, 0.0, 0.0, 0.53, 1.0, 1.58, 1.6, 1.34, 1.34, 1.79, 1.79, 1.79, 1.79, 2.24, 2.6, 2.6, 2.6, 2.24, 2.24, 1.79, 1.79, 1.79, 1.79, 1.79, 1.34, 1.34, 0.0, 0.0, 0.0, 0.0, 0.0, 0.0, 0.0, -0.89, -1.79, -2.98, -3.0, -2.31, -1.52, 0.0, 2.35, 2.26, 0.69, 0.0, -0.59, -1.16, -1.16, -1.16, -1.33, -1.49, -1.8, -1.8, -1.8, -1.84, -1.61, -0.99, -0.57, -2.17, -4.43, -6.23, -6.23, -9.88, -9.88, -9.88, -9.63, -9.63, -9.63, -9.63, -9.48, -9.48, -9.48, -9.21, -9.21, -9.21, -9.21, -9.21, -9.01, -8.65, -8.65, -8.29, -8.08, -8.08, -8.08, -8.08, -7.23, -6.95, -6.34, -6.01, -5.71, -5.1, -5.1, -5.1, -4.75, -4.1, -3.22, -2.82, -2.18, -1.73, -1.08, -0.57, 0.0, 0.65, 0.71, 1.26, 0.63, 0.89, 1.34, 1.79, 1.79, 1.79, 1.79, 2.12, 2.17, 2.6, 2.17, 2.24, 1.79, 1.79, 1.7, 1.79, 1.79, 1.79, 1.34, 0.0, 0.0, 0.0, 0.0, 0.0, 0.0, 0.0, 0.0, -0.45, -1.34, -1.2, 0.0, -0.8, -1.58, -2.35, -1.63, -2.26, -1.26, -1.35, -0.61, -0.61, -1.16, -1.16, -1.33, -1.27, -1.27, -2.0, -2.07, -2.15, -1.9, -1.2, 0.0, 0.0, -1.34, -3.53, -6.58, -9.88, -9.88, -9.88, -9.63, -9.63, -9.63, -9.48, -9.48, -9.48, -9.48, -9.48, -9.21, -9.21, -9.21, -9.21, -9.21, -8.65, -8.65, -8.29, -8.08, -8.08, -8.08, -8.08, -7.51, -7.25, -6.92, -6.32, -5.71, -5.38, -5.38, -5.08, -5.08, -4.47, -4.12, -2.82, -2.18, -1.73, -1.08, -0.57, 0.0, 0.0, 0.0, 0.6, 0.0, 0.89, 1.34, 1.2, 1.79, 1.79, 1.6, 1.7, 2.12, 2.12, 2.12, 1.79, 1.79, 1.6, 1.6, 1.7, 1.79, 1.79, 1.79, 1.34, 0.0, 0.0, 0.0, 0.0, 0.0, 0.0, 0.0, 0.0, -0.89, -1.79, -1.49, -0.79, -1.49, -3.0, -5.21, -5.52, -4.14, -1.94, -0.61, -0.61, -0.61, -0.53, -0.61, -0.66, -0.73, -1.27, -1.33, -1.2, -1.6, -0.8, 0.0, 0.63, 0.4, -0.89, -3.53, -9.88, -9.88, -9.88, -9.88, -9.63, -9.63, -9.48, -9.1, -9.1, -9.1, -9.1, -9.1, -8.84, -9.21, -9.21, -8.65, -8.65, -8.65, -8.55, -8.37, -8.37, -8.0, -7.73, -7.51, -7.17, -6.92, -6.32, -6.01, -5.38, -5.08, -5.08, -5.08, -4.47, -4.12, -3.47, -2.84, -2.2, -1.76, -1.13, -0.61, 0.0, 0.0, 0.0, 0.0, 0.0, 1.34, 1.34, 1.34, 1.34, 1.2, 1.6, 1.7, 1.7, 1.6, 1.6, 1.2, 1.2, 1.6, 1.6, 1.7, 1.79, 1.79, 1.34, 0.0, 0.0, 0.0, 0.0, 0.0, -0.0, 0.0, 0.0, -0.89, -2.68, -2.54, -0.98, 0.0, 0.0, -3.11, -5.49, -4.14, -1.88, -0.59, 0.0, 0.0, 0.0, 0.0, 0.0, 0.0, 0.0, -0.7, -0.57, -0.63, -0.63, 0.0, 0.0, 0.4, 0.0, -0.89, -9.88, -9.88, -9.88, -9.88, -9.88, -9.48, -9.1, -9.1, -9.1, -9.1, -9.1, -9.1, -9.1, -8.84, -8.84, -8.65, -8.65, -8.65, -8.55, -8.37, -8.0, -8.0, -8.0, -7.8, -7.17, -6.59, -6.28, -5.69, -5.69, -5.08, -5.08, -5.08, -5.06, -4.45, -3.47, -2.84, -2.2, -1.76, -1.13, -0.61, 0.0, 0.0, 0.0, 0.0, 0.0, 0.45, 1.2, 0.89, 0.63, 0.95, 1.6, 1.6, 1.2, 1.2, 1.2, 1.2, 1.2, 1.6, 1.6, 1.7, 1.7, 1.7, 1.79, 1.79, 1.34, 0.0, 0.0, 0.0, 0.63, -0.0, 0.0, -1.2, -2.68, -3.13, -1.6, 0.71, 1.24, 0.0, -1.33, -2.4, -1.13, 0.0, 0.0, 0.64, 0.72, 0.67, 0.0, 0.0, 0.0, 0.0, 0.0, -0.6, -0.6, 0.0, 0.0, 0.0, 0.0, 0.0, -9.88, -9.88, -9.88, -9.88, -9.88, -9.35, -9.1, -9.1, -9.1, -9.1, -9.1, -9.1, -9.1, -9.1, -8.84, -8.65, -8.93, -8.55, -8.55, -8.0, -8.0, -8.0, -8.0, -7.8, -7.44, -6.87, -6.28, -5.69, -5.69, -5.65, -5.65, -5.37, -5.06, -4.45, -4.12, -3.49, -2.86, -2.22, -1.6, -1.16, -0.54, -0.57, -0.6, 0.0, 0.0, 0.63, 0.63, 0.63, -0.0, 0.63, 0.95, 0.95, 0.95, 0.95, 0.95, 0.95, 1.2, 1.6, 1.6, 1.7, 2.12, 2.12, 1.7, 1.79, 1.79, 1.79, 1.79, 2.24, 1.2, -0.0, 0.0, -1.34, -2.68, -3.13, -1.79, 0.0, 0.95, 0.57, 0.0, 0.0, 0.0, 0.59, 1.36, 1.36, 0.69, 0.0, 0.0, 0.0, -0.72, -0.63, -0.61, -1.24, -1.26, -0.6, 0.0, -0.6, -0.6, -0.6, -9.88, -9.88, -9.88, -9.88, -9.48, -9.35, -9.35, -9.35, -9.1, -9.1, -9.1, -9.1, -9.1, -9.1, -9.1, -8.93, -8.93, -8.55, -8.55, -8.0, -8.27, -8.0, -8.0, -7.44, -7.44, -6.87, -6.28, -5.95, -5.98, -5.65, -5.65, -5.65, -5.06, -4.45, -4.12, -3.49, -3.12, -2.48, -1.84, -1.4, -1.24, -0.8, -0.6, -0.63, 0.0, -0.0, -0.0, -0.0, -0.0, -0.0, -0.0, -0.0, 0.63, 0.63, 0.95, 0.95, 0.95, 1.2, 1.6, 1.7, 2.12, 2.12, 2.12, 2.24, 1.79, 1.79, 2.24, 2.68, 1.2, -0.0, 0.0, -1.34, -3.13, -3.13, -2.24, -1.2, 0.0, 0.0, 0.7, 1.27, 3.11, 4.14, 3.44, 2.17, 0.71, 0.0, -0.71, -0.74, -1.52, -1.47, -1.33, -1.2, -1.58, -0.95, -0.6, -0.6, -0.6, -0.6, -9.88, -9.88, -9.48, -9.48, -9.35, -9.35, -9.35, -9.35, -9.35, -9.1, -9.1, -9.1, -9.1, -9.1, -9.1, -9.1, -8.93, -8.55, -8.55, -8.27, -8.27, -8.27, -7.9, -7.44, -7.44, -6.87, -6.52, -6.23, -5.98, -5.65, -5.65, -5.65, -5.06, -4.74, -4.12, -4.11, -3.49, -2.86, -2.23, -1.88, -1.24, -1.26, -0.95, -0.95, 0.0, 0.0, -0.0, -0.0, -0.0, -0.0, -0.0, -0.0, -0.0, -0.0, -0.0, -0.0, 0.95, 0.95, 1.6, 1.6, 2.12, 1.86, 1.86, 1.86, 1.26, 1.79, 1.79, 0.95, 1.2, -0.0, -0.45, -1.6, -3.04, -3.04, -1.7, 0.0, 0.0, 0.0, 0.0, 3.09, 6.42, 7.02, 5.1, 2.82, 0.65, 0.0, -0.69, -1.45, -2.04, -1.27, -2.32, -1.86, -1.7, -1.2, -1.2, -0.63, -0.63, -0.63, -9.48, -9.48, -9.48, -9.35, -9.35, -9.35, -9.35, -9.35, -9.35, -9.1, -9.1, -9.1, -9.1, -9.1, -9.1, -9.1, -8.55, -8.55, -8.82, -8.43, -8.27, -7.9, -7.9, -7.9, -7.72, -7.35, -6.79, -6.23, -5.98, -5.65, -5.65, -5.65, -5.06, -5.01, -4.43, -4.11, -3.49, -2.86, -2.23, -1.88, -1.9, -1.58, -1.26, -1.2, -0.89, 0.0, 0.0, -0.63, -0.63, -0.0, -0.0, -0.0, -0.0, -0.0, -0.0, -0.0, -0.0, 0.95, 0.95, 1.6, 1.86, 2.23, 2.23, 1.86, 1.26, 1.26, 1.79, 0.63, 0.63, -0.0, -0.89, -1.7, -2.12, -1.26, 0.0, 0.63, 0.0, 0.0, 0.0, 3.33, 6.24, 6.87, 4.48, 2.76, 1.36, 0.0, -1.4, -2.06, -2.11, -3.22, -2.53, -1.7, -1.79, -1.79, -1.34, -0.89, -0.89, -0.89, -9.48, -9.48, -9.48, -9.35, -9.35, -9.35, -9.35, -9.35, -9.35, -9.35, -9.1, -9.1, -9.1, -9.1, -9.1, -9.1, -8.55, -8.82, -8.82, -8.43, -7.9, -7.9, -7.9, -7.9, -7.72, -7.35, -6.79, -6.23, -6.23, -5.65, -5.65, -5.65, -5.59, -5.01, -4.43, -4.11, -3.79, -3.16, -2.51, -2.21, -1.9, -1.86, -1.6, -1.2, -0.89, -0.89, -0.89, -0.95, -0.95, -0.63, -0.0, -0.0, -0.0, -0.0, -0.0, -0.0, -0.0, -0.0, 0.95, 1.26, 1.86, 2.23, 1.9, 2.23, 1.26, 1.26, 1.26, 1.26, -0.0, -0.63, -0.89, -1.34, -0.89, -0.63, 0.0, 0.63, 0.0, 0.0, 1.41, 3.84, 4.43, 4.71, 3.82, 3.61, 1.32, 0.0, -2.04, -2.04, -1.84, -1.2, -1.34, -1.34, -1.79, -1.79, -1.34, -0.89, -0.89, -0.89, -9.48, -9.48, -9.35, -9.35, -9.35, -9.35, -9.35, -9.35, -9.35, -9.35, -9.1, -9.1, -9.1, -9.1, -9.1, -9.1, -8.82, -8.82, -8.43, -8.43, -8.27, -7.9, -7.9, -7.9, -7.72, -7.35, -6.79, -6.57, -6.23, -5.65, -5.65, -5.65, -5.93, -5.35, -4.71, -4.37, -4.07, -3.16, -2.84, -2.21, -2.15, -1.86, -1.7, -1.79, -1.34, -1.34, -1.34, -1.2, -1.2, -0.95, -0.63, -0.0, -0.0, -0.0, -0.0, -0.0, -0.0, -0.0, 0.95, 1.6, 1.86, 2.23, 1.9, 1.9, 1.24, 1.9, 1.9, 1.9, -0.0, -0.6, -0.6, -0.63, -0.45, 0.0, 0.0, 0.0, 0.0, 0.0, 1.74, 3.22, 2.3, 3.09, 3.7, 2.2, 0.0, -0.57, -1.8, -1.84, -0.99, -0.6, -1.34, -1.34, -1.79, -1.79, -1.34, -0.63, -0.63, -0.63, -9.35, -9.35, -9.35, -9.35, -9.35, -9.35, -9.35, -9.35, -9.35, -9.35, -9.35, -9.1, -9.1, -9.1, -9.1, -8.96, -8.82, -8.82, -8.43, -8.43, -8.27, -8.15, -7.9, -7.9, -7.35, -7.35, -6.79, -6.79, -6.23, -5.65, -5.93, -5.93, -5.93, -5.35, -5.29, -4.71, -4.07, -3.78, -3.14, -2.68, -2.15, -2.0, -2.12, -1.79, -1.79, -1.79, -1.79, -1.7, -1.6, -1.2, -0.95, -0.63, -0.0, -0.0, -0.0, -0.0, -0.0, -0.0, 0.95, 1.6, 1.86, 1.9, 2.5, 1.88, 1.4, 0.57, 0.8, 1.26, 0.8, -0.0, -0.0, -0.63, -0.63, 0.0, 0.0, 0.0, 0.0, 0.0, 1.26, 1.24, 1.4, 1.49, 1.2, 0.6, -1.0, -1.84, -2.15, -2.4, -1.9, -1.16, -1.2, -1.86, -2.12, -2.17, -1.79, -1.34, -1.34, -1.34, -9.35, -9.35, -9.35, -9.35, -9.35, -9.35, -9.35, -9.35, -9.35, -9.35, -9.35, -9.1, -9.1, -9.1, -9.35, -8.96, -8.82, -8.82, -8.43, -8.43, -8.68, -8.15, -8.15, -7.72, -7.35, -7.35, -6.79, -6.79, -6.51, -6.15, -5.93, -5.93, -5.93, -5.59, -5.29, -4.71, -4.29, -4.0, -3.35, -3.07, -2.91, -2.4, -2.17, -2.24, -2.24, -1.79, -1.7, -1.7, -1.7, -1.6, -1.2, -0.95, -0.6, -0.0, -0.0, -0.0, -0.0, 0.6, 0.6, 1.26, 1.86, 1.9, 2.21, 1.88, 1.16, 0.57, 0.57, 1.26, 1.26, 0.6, -0.0, 0.0, 0.0, -0.0, 0.0, 0.0, 0.0, 0.0, 0.0, 0.6, 0.54, 0.57, 0.63, -0.0, -1.24, -2.5, -2.17, -3.07, -3.82, -3.49, -2.48, -2.23, -2.15, -2.24, -1.79, -1.7, -1.7, -1.7, -9.35, -9.35, -9.35, -9.35, -9.35, -9.35, -9.35, -8.96, -8.96, -9.35, -9.35, -9.35, -9.1, -9.35, -8.96, -8.82, -8.82, -8.82, -8.43, -8.68, -8.28, -8.15, -8.15, -7.61, -7.35, -7.35, -6.79, -6.79, -6.51, -6.51, -6.15, -5.93, -5.93, -5.59, -5.29, -4.94, -4.65, -4.0, -3.35, -3.2, -2.91, -2.63, -2.6, -2.68, -2.24, -2.24, -2.17, -2.12, -2.12, -1.7, -1.6, -1.2, -0.6, -0.0, -0.0, -0.0, -0.0, 0.57, 0.8, 1.26, 1.58, 1.9, 1.88, 1.88, 1.16, 1.16, 0.57, 0.57, 0.8, 0.6, 0.63, 0.0, 0.45, 0.89, 0.63, -0.0, 0.0, 0.0, 0.0, 0.0, 0.0, 0.45, 0.54, 0.6, -1.2, -1.26, -2.24, -3.53, -4.87, -6.58, -6.25, -4.75, -3.07, -2.24, -2.17, -1.86, -1.86, -1.86, -9.35, -9.35, -9.35, -9.35, -9.35, -8.96, -8.96, -8.96, -8.96, -8.96, -9.35, -9.35, -9.35, -9.35, -8.96, -8.82, -8.82, -8.82, -8.43, -8.68, -8.28, -8.15, -7.76, -7.61, -7.61, -7.61, -6.79, -7.07, -6.51, -6.51, -6.15, -6.15, -5.93, -5.59, -5.49, -4.94, -4.65, -4.0, -3.88, -3.6, -3.39, -3.07, -3.07, -2.68, -2.68, -2.68, -2.6, -2.17, -2.12, -2.12, -1.7, -1.6, -1.2, -0.0, -0.0, -0.0, -0.0, -0.0, 0.71, 0.57, 1.26, 1.24, 1.61, 1.61, 1.33, 1.13, -0.0, -0.0, -0.0, -0.0, -0.0, 0.0, 0.0, 0.63, 0.63, -0.0, 0.0, 0.0, 0.0, 0.0, 0.0, 0.8, 1.33, 0.63, 0.0, 0.0, -1.34, -2.68, -3.98, -6.22, -7.76, -6.8, -3.32, -2.6, -2.4, -2.23, -2.23, -2.23, -9.35, -9.35, -9.35, -8.96, -8.96, -8.96, -8.96, -8.96, -8.96, -8.96, -8.96, -9.35, -9.35, -8.96, -8.96, -8.82, -8.82, -8.82, -8.68, -8.68, -8.28, -8.15, -7.76, -7.61, -7.61, -7.61, -7.07, -7.07, -6.51, -6.51, -6.15, -6.15, -5.93, -5.86, -5.49, -4.94, -4.84, -4.55, -3.88, -3.7, -3.39, -3.53, -3.13, -3.13, -3.13, -2.68, -2.6, -2.6, -2.17, -2.12, -1.7, -1.6, -0.95, -0.0, -0.0, 0.57, 0.54, -0.0, -0.0, 0.71, 0.57, 1.24, 1.2, 1.16, 1.13, 0.59, -0.0, -0.0, -0.0, -0.0, -0.0, -0.0, 0.0, 0.0, 0.45, -0.0, 0.0, 0.0, 0.0, 0.0, 0.0, 1.16, 1.2, 0.8, 1.34, 1.79, 0.89, -0.89, -2.6, -3.97, -6.55, -5.2, -2.24, -1.9, -2.15, -2.15, -2.15, -2.15, -9.35, -9.35, -8.96, -8.96, -8.96, -8.96, -8.96, -8.96, -8.96, -8.96, -8.96, -9.35, -9.35, -8.96, -8.96, -8.96, -8.82, -8.43, -8.68, -8.68, -8.28, -8.15, -8.15, -7.61, -7.61, -7.61, -7.07, -7.07, -6.7, -6.51, -6.15, -6.15, -6.15, -5.86, -5.86, -5.75, -4.84, -4.55, -4.4, -4.11, -3.87, -3.53, -3.53, -3.13, -3.13, -3.13, -2.63, -2.6, -2.6, -2.12, -1.7, -1.6, -0.95, -0.0, -0.0, -0.0, 0.57, 0.65, -0.0, -0.0, 0.71, 0.57, 0.71, 0.53, 0.59, 0.57, -0.0, -0.0, -0.0, -0.0, -0.0, -0.6, -0.6, -0.0, -0.0, 0.0, 0.0, 0.0, 0.0, 0.63, 1.2, 1.33, 0.61, 1.26, 0.89, 1.79, 2.24, 1.79, 0.0, -2.63, -3.53, -2.24, -0.6, -1.24, -2.15, -2.5, -2.5, -2.5, -9.35, -9.35, -8.96, -8.96, -8.96, -8.96, -8.96, -8.96, -8.96, -8.96, -8.96, -8.96, -9.35, -8.96, -8.96, -8.96, -8.82, -8.43, -8.68, -8.68, -8.28, -8.15, -7.76, -7.61, -7.61, -7.61, -7.07, -7.07, -6.7, -6.51, -6.51, -6.15, -6.41, -6.03, -5.86, -5.75, -5.21, -5.08, -4.8, -4.6, -4.3, -3.98, -3.54, -3.58, -3.58, -3.13, -3.07, -2.63, -2.6, -2.17, -1.7, -1.6, -0.95, -0.63, -0.0, -0.0, 0.6, 0.71, 0.65, -0.0, -0.0, 0.57, 0.57, -0.0, -0.0, -0.0, -0.0, -0.0, -0.0, -0.0, -0.0, -0.0, -0.0, -0.0, -0.0, 0.45, 0.0, 0.0, 0.0, 0.45, 1.7, 0.67, 0.59, 0.57, 0.45, 0.89, 2.24, 2.68, 1.79, -0.45, -1.79, -0.6, -0.0, -0.95, -2.4, -2.5, -2.5, -2.5, -8.96, -8.96, -8.96, -8.96, -8.96, -8.96, -8.96, -8.82, -8.82, -8.96, -8.96, -8.96, -8.96, -8.96, -8.96, -8.96, -8.82, -8.68, -8.68, -8.68, -8.28, -8.15, -7.76, -7.61, -7.61, -7.61, -7.23, -7.07, -7.07, -6.7, -6.51, -6.15, -6.41, -6.41, -6.03, -5.75, -5.37, -5.08, -4.9, -4.6, -4.34, -4.43, -3.98, -3.58, -3.58, -3.13, -3.13, -3.07, -2.63, -2.17, -1.7, -1.2, -0.95, -0.63, -0.0, 0.0, -0.0, 0.6, 0.71, 0.54, -0.0, -0.0, 0.57, 0.57, -0.0, -0.0, -0.0, -0.0, -0.0, -0.0, -0.0, -0.0, -0.0, -0.0, 0.63, 0.89, 0.45, 0.0, 0.0, 0.0, 1.2, -0.0, -0.0, -0.0, 0.0, 0.0, 1.34, 2.63, 2.6, 1.2, -0.0, -1.26, -1.79, -1.34, -2.12, -2.23, -2.23, -2.23, -8.96, -8.96, -8.96, -8.96, -8.96, -8.96, -8.82, -8.82, -8.82, -8.82, -8.96, -8.96, -8.96, -8.96, -8.96, -8.96, -9.07, -8.68, -8.68, -8.68, -8.28, -8.4, -8.0, -7.76, -7.61, -7.61, -7.23, -7.07, -7.07, -6.7, -6.7, -6.51, -6.41, -6.41, -6.03, -5.75, -5.37, -5.6, -5.31, -5.09, -4.77, -4.34, -4.43, -3.98, -3.58, -3.58, -3.58, -3.13, -2.63, -2.6, -2.12, -1.2, -0.95, -0.63, -0.0, 0.0, -0.0, -0.0, 0.57, 0.71, 0.71, 0.71, 0.71, 0.71, 0.71, 0.71, 0.65, -0.0, -0.0, -0.0, -0.0, -0.0, -0.0, -0.0, -0.0, -0.0, 0.0, 0.0, 0.0, 0.0, 0.95, -0.0, -0.0, -0.61, -0.63, -0.45, 0.45, 2.17, 2.4, 1.7, -0.0, -1.49, -2.24, -1.79, -1.79, -2.12, -2.12, -2.12, -8.96, -8.96, -8.96, -8.96, -8.96, -8.96, -8.82, -8.82, -8.82, -8.82, -8.96, -8.96, -8.96, -8.96, -8.96, -8.96, -9.2, -8.68, -8.68, -8.68, -8.28, -8.4, -8.4, -8.0, -7.61, -7.61, -7.23, -7.23, -7.07, -7.07, -6.7, -6.7, -6.95, -6.41, -6.03, -6.28, -6.0, -5.6, -5.31, -5.09, -4.6, -4.77, -4.44, -3.98, -4.02, -3.58, -3.58, -3.13, -3.13, -2.68, -2.17, -1.2, -0.95, -0.95, -0.63, 0.0, 0.0, -0.0, 0.6, 0.99, 1.24, 1.24, 1.24, 1.2, 1.49, 1.24, 1.24, 0.57, 0.54, -0.0, -0.0, -0.54, -0.0, -0.0, -0.0, -0.0, 0.0, 0.0, 0.0, 0.0, 0.89, -0.0, -0.63, -0.7, -1.26, -1.34, 0.0, 0.95, 1.86, 1.6, -0.0, -0.8, -1.49, -1.34, -1.34, -1.79, -1.79, -1.79, -8.96, -8.96, -8.96, -8.96, -8.96, -8.96, -8.82, -8.82, -8.82, -8.82, -8.96, -8.96, -8.96, -8.96, -8.96, -9.2, -9.2, -8.68, -8.68, -8.68, -8.28, -8.4, -8.4, -8.0, -7.76, -7.61, -7.61, -7.61, -7.23, -7.07, -7.07, -6.7, -6.95, -6.56, -6.41, -6.28, -6.0, -5.6, -5.31, -5.09, -5.09, -4.77, -4.34, -4.44, -3.98, -4.02, -3.58, -3.58, -3.13, -2.68, -2.24, -1.34, -1.2, -0.95, -0.63, -0.89, 0.0, 0.0, -0.0, 0.8, 1.58, 1.86, 1.58, 1.9, 1.61, 1.9, 1.86, 1.26, 0.57, 0.71, -0.0, -0.0, -0.0, -0.0, -0.0, -0.0, -0.0, 0.45, 0.0, 0.0, 0.89, 0.54, -0.66, -1.13, -1.86, -1.34, -0.89, -0.0, 0.63, 0.63, -0.0, -0.6, -0.6, -1.34, -1.2, -1.26, -1.26, -1.26, -8.96, -8.96, -8.96, -8.96, -8.96, -8.96, -8.96, -8.82, -8.82, -8.82, -8.96, -8.96, -8.96, -8.96, -8.96, -9.2, -9.2, -9.2, -8.68, -8.68, -8.28, -8.51, -8.4, -8.4, -7.76, -7.76, -7.61, -7.61, -7.23, -7.23, -7.07, -6.95, -6.95, -6.56, -6.67, -6.28, -6.0, -5.6, -5.31, -5.31, -5.09, -4.66, -4.77, -4.34, -4.44, -3.98, -3.58, -3.58, -3.13, -2.68, -1.79, -1.79, -1.34, -1.2, -0.95, -0.63, -0.89, 0.0, -0.0, 0.95, 1.26, 1.26, 1.86, 1.9, 1.61, 1.49, 1.24, 1.26, 0.8, 0.57, -0.0, -0.0, -0.0, -0.0, 0.57, 0.57, 0.95, 0.89, 0.89, 0.45, 0.45, 1.2, -0.0, -1.33, -1.9, -1.79, -0.89, -0.45, 0.0, 0.0, 0.0, -0.63, -0.63, -1.2, -1.26, -1.2, -1.2, -1.2, -8.96, -8.96, -8.96, -8.96, -8.96, -8.96, -8.96, -8.82, -8.82, -8.82, -8.96, -8.96, -8.96, -8.96, -8.96, -9.2, -9.2, -9.2, -8.68, -8.68, -8.28, -8.51, -8.4, -8.4, -7.76, -7.76, -7.61, -7.61, -7.23, -7.23, -7.07, -6.95, -6.95, -6.56, -6.67, -6.28, -6.0, -5.6, -5.31, -5.31, -5.09, -4.66, -4.77, -4.34, -4.44, -3.98, -3.58, -3.58, -3.13, -2.68, -1.79, -1.79, -1.34, -1.2, -0.95, -0.63, -0.89, 0.0, -0.0, 0.95, 1.26, 1.26, 1.86, 1.9, 1.61, 1.49, 1.24, 1.26, 0.8, 0.57, -0.0, -0.0, -0.0, -0.0, 0.57, 0.57, 1.2, 0.89, 0.89, 0.45, 0.45, 0.89, -0.0, -0.71, -1.58, -1.7, -1.2, -0.6, 0.0, 0.0, 0.0, 0.0, 0.0, 0.0, -0.53, -0.61, -0.61, -0.61]}]